GFSMA_925_thetae_000.txt.gz
Theta_e
323 320 319 319 317 315 314 313 313 314 316 316 314 313 311 308 307 308 311 313 315 315 314 313 313 317 318 319 318 315 313 312 310 310 312 315 319 320 321 322 325 326 326
323 320 319 313 311 311 311 311 311 312 311 310 309 308 306 304 303 302 305 307 310 311 314 314 314 313 313 317 319 319 315 312 311 310 309 309 311 316 320 323 323 325 327
319 313 312 311 310 309 309 309 308 307 306 305 304 304 303 302 301 300 302 308 310 311 312 314 315 315 314 312 313 317 320 318 314 312 312 312 310 310 315 319 322 323 325
312 311 310 309 308 308 307 306 304 304 303 302 301 301 301 301 299 301 307 307 308 309 307 305 307 311 312 312 312 312 317 318 318 316 315 313 313 310 310 314 318 322 323
310 310 309 308 307 306 304 303 302 301 301 300 299 300 299 299 301 305 305 306 304 303 303 302 302 302 302 305 308 310 313 316 317 317 318 318 315 313 310 310 313 317 320
309 307 306 306 305 305 303 302 300 299 299 299 297 298 296 300 301 305 303 303 302 302 302 301 300 299 299 299 300 302 308 312 316 317 316 317 318 315 313 311 310 311 315
306 305 304 303 302 301 300 299 298 298 298 300 300 298 297 302 300 301 301 300 300 299 298 298 297 296 297 297 297 298 300 307 311 316 318 316 316 317 314 312 309 308 309
302 302 300 299 299 298 298 298 297 296 299 300 301 301 300 300 301 298 299 297 298 296 297 296 295 295 295 295 296 296 296 298 301 308 310 315 315 315 314 313 310 309 309
301 300 300 301 300 298 298 298 297 296 298 298 299 299 298 298 297 298 296 297 295 296 296 294 293 294 295 294 294 295 295 297 299 302 306 307 313 314 314 312 310 311 311
302 303 303 302 300 299 298 297 297 297 297 296 296 296 294 294 295 296 296 294 294 295 293 294 294 295 294 295 292 295 295 297 300 302 304 307 309 313 314 311 309 310 312
302 302 302 301 300 299 298 297 296 296 294 292 292 292 293 292 294 293 293 292 292 292 293 291 291 294 294 294 293 292 293 295 301 303 304 304 308 311 309 308 309 309 310
302 301 301 300 299 297 296 295 293 291 290 289 288 289 290 291 291 292 290 290 290 291 288 290 291 290 293 293 293 292 292 294 300 302 302 305 306 307 307 308 309 308 311
301 300 300 299 297 294 293 293 291 289 288 288 287 287 287 288 289 289 290 289 289 288 288 287 287 287 291 290 291 291 294 294 297 301 301 302 303 304 303 303 303 304 308
300 299 299 297 294 296 294 292 290 288 288 288 288 288 288 288 288 286 286 287 286 286 286 286 287 286 290 290 290 289 293 297 297 296 298 300 301 302 301 300 299 299 299
299 299 297 295 295 293 293 291 290 289 288 288 288 288 288 288 287 285 285 284 285 285 285 285 287 286 287 289 291 289 291 295 294 293 297 300 300 300 300 300 300 300 299
298 297 296 294 293 292 292 291 290 289 289 289 288 288 287 285 285 285 284 283 283 283 284 285 285 286 285 288 291 289 289 294 294 294 295 296 298 299 300 299 299 300 300
296 296 295 294 293 291 290 290 289 289 288 288 287 286 285 285 284 283 282 281 281 281 282 283 284 284 284 288 289 290 290 288 292 293 293 293 294 297 298 297 296 297 296
295 295 293 292 292 291 289 288 288 288 288 287 286 285 285 283 283 282 281 280 281 281 282 283 283 284 284 288 288 287 288 289 288 290 292 292 292 294 296 296 295 295 295
292 292 293 292 289 289 288 288 288 288 287 285 285 285 283 283 282 281 280 281 281 282 282 283 284 284 284 285 287 287 286 287 287 288 289 290 291 292 295 295 295 294 294
293 292 290 290 289 288 288 288 287 286 286 285 285 284 283 282 281 281 281 281 281 281 281 282 283 283 283 285 286 285 285 285 285 286 287 287 289 290 293 293 294 294 293
292 292 291 288 289 288 287 287 286 285 285 284 284 283 283 282 282 282 281 280 280 280 281 282 282 283 283 283 283 284 284 283 284 283 284 285 287 287 289 292 292 293 292
290 289 288 289 287 287 286 286 285 284 284 284 282 281 280 279 279 279 279 279 279 279 280 281 281 282 283 283 283 282 282 282 283 284 284 284 285 286 285 287 289 291 292
292 291 290 287 287 286 285 283 282 281 281 280 279 277 277 278 277 277 277 278 279 279 280 281 281 281 282 282 282 281 282 282 282 282 282 283 283 284 284 285 287 289 289
291 291 288 286 285 284 282 281 280 279 278 277 276 276 276 277 277 277 278 279 279 279 280 279 280 280 280 281 282 281 281 282 282 282 282 283 283 283 283 284 286 287 288
290 287 286 285 283 281 280 279 279 278 277 276 276 276 276 276 277 278 279 279 279 279 279 279 279 279 279 280 281 282 282 281 281 281 281 283 283 283 283 283 284 285 286
286 286 284 283 281 280 279 278 278 277 276 277 276 276 276 276 277 278 278 277 278 279 279 279 279 279 278 278 279 280 281 282 282 281 282 282 282 283 283 284 284 284 285

GFSMA_925_thetae_003.txt.gz
Theta_e
324 319 318 316 313 311 311 310 310 310 312 311 309 308 305 303 303 305 307 303 305 307 309 312 313 314 318 321 320 319 320 320 318 314 311 313 313 316 319 320 322 323 325
321 317 311 311 311 311 309 309 308 308 307 306 304 303 302 302 302 302 306 305 303 305 308 311 312 314 316 317 318 318 316 315 319 318 314 313 313 311 313 317 321 322 324
311 310 312 313 310 308 307 307 306 304 304 303 303 302 302 301 300 301 304 304 305 306 307 308 308 306 308 309 312 316 317 317 315 318 318 315 314 313 312 310 315 320 323
312 311 309 309 307 306 305 305 303 303 303 302 301 303 302 302 303 306 305 305 305 305 306 306 306 304 303 303 306 308 311 315 317 316 316 317 316 315 313 312 311 316 320
309 308 307 306 305 304 304 302 301 300 302 301 300 301 300 301 305 306 305 304 304 304 303 303 303 303 302 300 301 304 307 309 313 316 318 317 317 317 316 314 312 312 316
307 306 305 304 303 302 301 300 299 300 301 301 299 301 300 301 306 305 304 303 302 302 301 301 301 300 298 298 297 299 303 306 308 310 315 319 318 317 317 316 314 311 311
304 303 301 300 299 299 300 299 298 299 300 300 300 299 299 303 303 302 301 301 300 299 299 299 299 298 298 298 298 297 299 302 305 306 308 312 317 317 317 317 315 311 308
301 300 302 303 303 302 300 299 298 299 300 299 298 298 300 299 299 301 298 298 298 298 298 297 297 296 296 297 297 297 295 298 301 304 306 307 310 315 316 316 315 311 308
303 303 302 302 302 302 301 299 299 299 299 299 298 297 298 298 297 296 296 296 296 294 295 294 294 294 295 296 296 296 295 293 294 301 304 307 308 310 314 315 315 312 309
302 302 301 301 302 300 300 299 298 297 296 295 295 295 294 295 295 294 293 293 293 291 291 293 291 292 294 294 296 295 293 292 292 295 302 305 307 308 312 314 315 312 310
301 301 301 301 301 299 298 297 296 294 293 292 291 291 291 290 291 291 291 290 290 289 290 289 290 290 291 292 293 294 293 292 292 294 301 303 306 308 309 312 313 312 311
301 301 300 300 300 299 297 294 291 291 290 290 289 289 289 289 289 290 290 289 289 288 288 288 288 288 288 289 292 292 291 291 293 294 300 302 303 306 309 311 310 311 310
298 299 299 300 299 295 294 293 292 290 290 289 289 288 289 289 289 289 289 289 289 288 288 287 287 287 287 288 292 292 293 291 294 296 296 300 300 304 305 307 309 310 309
293 295 298 298 295 294 293 293 293 291 289 289 289 290 289 289 290 289 288 288 289 288 287 287 287 287 288 288 289 291 292 292 293 296 294 297 300 301 301 301 303 304 305
295 298 298 296 295 294 295 293 292 291 290 290 290 290 289 289 288 287 287 287 287 289 288 286 285 285 286 287 288 290 293 290 294 295 295 296 298 300 301 301 299 299 299
296 298 296 295 295 294 293 291 291 291 289 290 290 290 288 287 286 286 286 285 285 285 286 285 284 284 285 285 287 288 291 290 290 294 295 294 294 295 298 300 300 300 300
295 296 295 294 293 292 291 290 289 289 288 289 288 287 287 286 286 285 284 284 284 284 284 284 283 284 285 285 286 288 290 290 289 289 292 293 292 293 295 298 299 299 299
293 293 293 293 293 291 289 289 289 288 288 288 287 286 286 285 284 284 284 283 283 283 283 283 283 284 285 285 286 287 289 289 289 288 289 291 292 292 295 297 297 296 296
292 292 292 292 290 289 288 288 288 288 287 287 286 285 285 284 284 284 283 283 282 282 282 282 282 282 283 284 285 286 288 288 288 288 287 288 290 291 292 295 295 295 295
292 292 292 291 290 288 288 288 287 287 286 285 285 284 284 283 283 283 283 283 282 282 281 281 281 282 283 284 285 286 287 287 287 286 286 286 287 289 292 294 295 294 294
292 291 290 287 288 287 287 287 286 286 286 285 284 283 282 281 281 281 281 281 280 280 280 281 281 281 282 283 285 285 286 286 286 285 286 286 287 288 289 292 294 294 293
292 291 290 289 288 287 286 285 284 284 282 281 281 280 279 279 279 279 278 278 279 279 280 280 282 281 281 282 283 284 284 285 286 285 285 286 285 287 287 288 290 292 293
292 291 290 288 287 286 284 283 282 281 280 280 279 278 278 278 278 278 278 279 280 280 280 280 281 281 281 282 283 284 283 283 284 284 283 285 285 285 286 285 288 289 290
290 290 289 288 286 283 282 281 280 280 279 279 278 278 278 278 278 278 279 279 279 279 280 280 281 281 281 281 281 282 282 282 283 283 283 284 284 285 285 285 285 286 288
288 288 287 285 283 281 281 280 279 279 279 278 278 278 277 277 277 278 278 279 279 279 280 279 280 280 280 280 280 281 282 282 283 283 283 283 283 284 284 285 285 285 287
286 286 285 283 282 281 280 279 279 279 278 278 278 277 277 276 277 277 277 278 278 279 278 279 279 280 280 280 280 280 281 282 284 283 283 283 284 284 285 285 285 286 286

GFSMA_925_thetae_006.txt.gz
Theta_e
321 325 323 320 318 317 316 316 315 314 312 311 311 311 310 309 309 310 311 310 305 303 304 306 309 312 317 318 318 319 321 321 317 319 316 314 312 312 313 318 321 323 323
318 319 319 316 316 315 314 313 311 310 309 309 308 309 308 308 307 309 309 310 307 305 304 304 306 307 310 311 312 314 317 318 320 319 319 317 314 312 310 312 316 320 323
321 316 315 316 314 312 311 310 309 309 309 308 308 307 307 307 306 309 309 308 307 307 305 306 306 306 306 307 308 309 311 313 316 317 319 320 317 314 311 309 311 315 319
311 312 313 311 308 308 309 309 308 308 307 307 306 306 306 305 305 309 308 308 307 307 307 306 304 304 304 304 305 305 307 309 311 313 317 318 319 317 315 312 310 311 315
307 309 310 309 309 308 308 307 306 305 305 305 305 304 304 305 305 306 307 307 307 306 306 305 303 302 301 301 302 303 304 305 307 309 310 313 318 319 318 315 314 311 311
309 310 310 309 307 306 306 305 305 305 305 305 304 304 305 303 303 305 306 305 304 303 303 303 302 302 300 300 300 300 302 302 303 305 307 309 311 315 319 319 316 314 311
307 307 307 307 307 307 307 306 305 304 304 304 302 302 301 300 302 303 303 301 301 302 300 300 299 299 298 298 298 299 299 299 300 300 302 305 307 309 313 318 318 316 313
306 306 307 307 306 306 306 306 304 302 302 302 302 300 301 300 299 301 300 299 299 299 297 297 296 296 295 296 297 297 298 298 298 298 299 301 304 307 309 312 317 317 315
306 305 306 305 305 305 304 304 303 302 301 300 299 299 300 300 297 297 298 296 297 295 295 294 294 293 293 294 294 296 296 296 296 297 297 299 301 304 308 309 312 317 316
306 305 305 304 304 303 302 303 301 300 298 298 297 296 296 296 298 297 295 295 293 293 292 292 293 291 291 291 292 293 294 293 293 294 295 297 300 303 305 308 309 314 315
304 303 303 302 302 301 302 302 300 298 297 296 296 295 295 294 293 293 294 293 292 292 291 291 290 291 291 290 290 290 293 292 292 293 294 297 299 302 304 306 309 312 316
296 297 298 301 302 302 302 300 297 297 295 294 293 292 292 292 292 291 293 292 291 291 291 290 290 290 290 289 290 289 292 292 293 291 292 296 299 301 303 306 309 310 313
295 295 296 298 301 302 299 297 296 296 294 293 292 291 291 291 291 291 291 291 291 290 290 290 290 289 289 289 290 289 289 291 293 291 293 296 297 300 301 304 306 310 312
296 297 299 301 301 299 297 297 297 295 293 292 291 291 291 291 290 290 290 290 291 290 290 289 289 288 288 288 288 287 289 290 293 290 295 294 294 296 298 300 303 303 308
296 297 300 300 299 297 297 296 295 294 293 291 291 291 290 290 289 289 289 289 289 291 290 288 288 287 287 287 287 287 288 289 292 290 293 294 296 296 297 299 300 300 300
295 297 298 299 297 297 296 295 293 292 291 290 290 290 289 289 288 288 288 288 287 287 291 287 287 287 286 286 287 287 287 288 290 290 290 294 294 293 293 295 299 300 300
294 295 297 297 296 295 294 294 292 291 290 290 290 290 289 288 288 288 287 287 287 287 287 286 286 286 286 286 287 287 288 288 290 290 288 290 292 292 292 295 297 299 299
294 294 295 295 295 294 294 292 291 291 291 290 290 289 288 288 287 287 287 287 286 286 285 285 285 285 285 284 285 286 287 287 290 291 290 288 289 291 292 294 295 296 297
294 294 294 294 293 292 291 291 291 291 290 289 289 288 288 287 287 286 286 286 285 284 285 284 284 283 283 284 285 285 286 288 289 290 288 289 288 289 291 292 294 295 295
294 294 294 294 293 291 290 290 290 290 289 289 288 288 287 286 285 284 283 284 283 283 283 283 283 283 283 283 284 285 287 287 288 289 288 287 287 288 290 292 294 294 295
294 294 293 291 291 290 289 289 290 289 289 287 286 285 284 282 281 280 280 281 281 281 281 281 282 283 283 283 284 284 285 286 287 289 288 287 288 289 290 292 292 294 293
293 294 293 292 292 289 288 286 286 286 286 285 284 283 282 281 281 279 280 279 279 280 280 281 282 283 282 283 284 284 285 285 287 287 287 287 287 288 289 289 288 289 292
293 293 293 292 291 290 285 284 283 284 285 284 283 282 282 281 281 281 280 280 280 281 280 280 281 281 282 283 283 283 284 285 285 285 286 286 286 287 287 287 287 288 289
292 291 291 291 291 287 283 282 282 284 283 282 282 281 281 281 281 279 279 280 280 280 280 280 281 281 282 282 283 282 283 283 284 284 285 285 286 286 287 287 287 286 288
291 291 291 290 289 286 283 282 281 283 283 282 281 281 280 279 279 278 278 279 280 280 281 280 279 280 280 281 280 281 281 282 284 284 284 285 285 285 286 286 287 286 286
291 290 289 288 285 285 282 281 280 282 282 282 281 280 279 278 277 277 277 278 279 279 279 279 279 280 280 281 281 281 281 282 283 284 284 284 284 285 286 286 287 287 287

GFSMA_925_thetae_009.txt.gz
Theta_e
323 321 321 318 321 321 320 319 318 315 313 312 311 311 311 310 310 309 310 311 310 308 305 309 313 313 311 308 309 313 316 319 320 323 323 319 317 313 311 311 315 321 323
323 322 322 321 319 319 318 316 313 312 311 310 309 309 309 309 309 309 309 311 310 308 307 306 305 308 310 310 309 310 312 313 315 317 319 322 321 318 315 312 310 313 319
326 321 319 315 317 314 312 311 311 310 310 309 309 309 308 308 308 308 309 310 309 308 307 306 306 305 305 307 308 308 308 309 311 312 313 316 319 320 320 316 313 309 311
315 312 316 315 312 310 310 310 309 309 309 309 308 308 307 306 307 307 307 308 309 308 308 306 305 304 303 303 304 305 306 307 307 308 310 312 312 315 319 320 317 315 309
313 314 313 313 312 311 310 310 309 309 309 308 308 307 306 305 306 306 304 306 308 307 307 304 304 303 302 301 301 302 303 303 305 305 306 307 309 311 312 317 320 319 316
312 313 312 311 310 310 310 310 310 309 308 308 306 306 304 303 302 302 304 305 305 304 304 303 302 301 300 299 299 299 300 302 302 302 303 302 304 306 308 311 314 318 320
310 310 310 310 310 310 309 309 309 308 307 304 303 303 302 302 302 301 302 303 303 301 301 301 299 299 298 298 297 298 299 300 301 301 300 301 301 301 303 307 310 312 317
310 309 309 309 309 308 307 307 307 306 303 302 302 302 302 300 299 299 298 298 299 299 299 298 297 296 296 295 295 295 296 298 298 298 297 298 299 300 301 303 306 310 311
309 308 307 307 307 306 304 303 303 304 302 301 300 300 300 300 298 297 297 297 297 297 297 295 295 294 294 293 293 293 292 293 295 295 295 297 298 299 300 302 304 306 310
306 304 303 303 303 304 303 302 303 302 301 300 299 299 298 297 298 298 295 295 295 295 295 294 293 293 292 293 292 292 292 291 290 293 294 295 297 298 299 301 303 305 308
299 298 298 298 299 302 303 303 303 302 300 299 298 297 296 295 294 295 295 294 294 293 293 293 292 292 292 292 292 291 291 291 292 292 294 294 296 297 298 300 302 304 306
298 298 298 298 299 300 302 302 302 300 299 298 296 295 294 294 293 293 294 293 294 293 292 292 292 291 291 291 291 290 291 290 289 289 293 294 295 298 298 299 301 303 306
297 297 298 299 300 300 301 301 299 299 298 296 295 294 293 293 293 292 292 292 293 292 291 291 291 291 290 290 290 289 289 288 288 290 291 292 293 297 297 298 300 301 304
297 297 298 300 300 300 299 299 299 298 297 295 294 293 293 292 292 292 291 291 293 292 291 291 290 290 289 289 289 288 288 289 288 290 290 290 291 295 295 296 299 300 302
296 296 298 299 300 299 299 299 297 296 295 294 293 292 292 291 291 290 290 290 291 293 292 290 290 289 289 288 288 288 288 288 289 288 288 290 291 294 294 293 293 297 300
296 296 296 297 298 298 298 296 295 295 294 293 292 292 292 291 291 290 290 290 289 290 292 289 289 288 288 288 287 287 287 288 288 289 288 290 291 293 293 292 292 294 298
295 295 295 296 296 296 295 295 295 295 293 293 292 292 291 291 290 289 289 289 289 289 290 289 288 287 287 286 286 286 286 287 288 289 291 289 288 290 291 292 292 292 295
295 295 295 295 295 295 294 294 293 293 292 292 292 291 290 290 289 288 288 288 288 288 288 288 287 287 286 285 285 285 286 287 287 288 290 291 289 288 288 290 291 292 293
295 295 295 295 294 295 294 293 292 292 292 292 291 291 290 289 288 287 287 287 286 286 286 285 286 285 284 284 285 285 285 286 287 288 289 290 288 289 288 289 292 292 294
294 295 295 294 294 293 292 292 292 291 291 291 290 289 288 287 286 285 284 284 284 284 284 284 284 283 284 284 284 285 286 286 287 288 288 290 288 288 288 290 292 292 294
294 294 294 294 294 293 292 290 291 291 290 289 288 287 286 285 283 281 281 282 282 282 282 282 282 282 283 284 284 284 285 285 286 287 288 290 289 289 290 291 291 289 291
294 294 294 294 294 293 291 290 286 287 288 288 287 286 285 284 283 282 282 281 280 281 281 282 282 282 282 282 283 284 284 285 286 286 287 287 288 289 289 290 287 287 288
294 294 293 293 294 293 291 287 285 285 287 287 286 285 284 283 283 283 282 281 281 281 281 282 282 282 283 283 283 284 284 284 285 285 286 286 287 288 288 288 287 287 286
294 293 293 292 292 291 289 286 283 285 287 286 285 284 283 283 282 280 279 280 280 281 281 281 281 281 281 281 280 281 282 282 283 284 284 285 286 286 288 288 288 287 286
294 293 293 292 291 289 288 285 283 285 286 285 284 283 282 281 281 278 278 279 280 280 281 280 280 280 280 280 280 281 281 282 283 283 285 285 286 286 287 287 287 287 287
293 293 292 291 290 289 287 285 283 284 285 284 284 283 282 280 279 278 278 278 279 280 278 278 279 280 281 281 282 282 282 282 283 284 284 286 286 286 286 286 287 287 288

GFSMA_925_thetae_012.txt.gz
Theta_e
324 321 320 320 321 319 319 317 314 313 311 311 310 310 309 309 309 309 309 310 311 309 307 311 312 312 312 312 311 311 311 312 314 316 318 319 322 321 319 316 313 311 319
325 323 323 320 318 318 314 312 311 311 310 310 310 309 309 308 307 309 308 308 310 309 308 307 307 307 308 308 308 309 309 310 310 311 312 314 315 317 320 320 318 315 311
326 322 316 316 316 316 311 310 310 310 310 309 309 309 309 308 307 307 307 307 308 310 308 307 305 304 304 305 305 305 306 306 308 308 308 310 311 312 314 315 319 320 317
315 316 315 314 313 312 311 311 310 310 309 310 309 308 308 307 305 305 307 304 304 308 308 307 304 303 302 303 303 303 303 304 304 305 306 306 306 307 308 311 313 317 320
314 314 314 314 312 311 310 311 310 310 310 309 309 306 306 305 304 302 302 302 304 306 304 305 303 302 302 301 301 300 301 302 303 303 303 304 304 304 305 306 308 311 314
312 312 312 311 311 311 310 309 309 310 309 308 304 303 304 303 301 301 301 300 300 302 301 301 301 300 298 298 298 298 299 300 300 302 302 301 301 302 302 303 304 306 310
310 310 310 310 310 309 308 307 307 307 307 305 303 302 302 301 300 300 298 298 298 299 299 299 297 296 296 296 296 296 296 297 299 299 298 298 298 299 300 301 302 304 306
310 309 309 308 307 307 307 306 304 304 305 304 301 301 299 300 300 298 298 297 297 296 297 296 296 295 294 293 293 294 294 295 294 295 295 296 296 297 299 300 301 302 304
308 307 304 303 303 304 305 304 303 304 303 302 301 300 299 298 298 297 296 296 295 295 295 295 294 294 293 293 292 293 292 292 292 293 293 294 295 296 297 299 300 301 303
301 299 298 298 298 299 301 303 303 303 303 301 300 299 298 297 295 295 295 294 294 293 294 294 293 292 292 292 292 292 292 292 291 291 291 292 293 295 296 297 299 300 302
298 298 298 299 299 299 299 301 303 303 301 300 298 297 296 295 294 294 292 293 293 293 293 293 292 291 292 292 291 291 290 290 290 290 290 291 292 293 294 297 299 299 301
298 298 298 299 300 300 301 303 302 300 299 299 297 296 295 294 294 293 292 292 292 292 292 292 291 291 291 290 290 290 290 289 289 289 289 290 292 292 293 296 298 298 300
298 298 297 299 300 301 301 301 300 299 299 298 297 295 294 294 293 293 293 292 292 291 291 291 291 291 290 290 289 290 289 289 289 289 290 290 291 291 292 295 297 297 298
297 296 297 298 299 301 299 299 299 298 298 297 296 295 294 293 293 292 291 291 290 290 291 291 290 290 290 290 289 289 288 288 288 288 288 289 290 290 291 294 295 296 297
297 296 296 297 298 300 298 299 298 298 297 295 294 293 292 292 292 292 291 290 291 289 289 290 290 289 289 288 287 287 287 287 287 287 287 288 289 290 290 293 293 292 292
296 296 296 296 296 297 299 298 297 296 295 295 294 293 293 292 291 291 290 290 289 289 289 289 289 289 288 287 287 287 286 286 286 286 286 288 289 289 289 290 292 292 291
296 296 296 296 296 296 295 295 295 294 295 294 293 293 292 292 291 290 290 289 289 289 288 288 287 287 286 286 286 285 285 285 285 286 287 288 289 289 289 288 289 291 291
296 295 295 295 295 295 295 295 294 293 293 293 293 292 291 290 290 289 288 288 287 286 286 285 285 285 285 284 285 284 285 285 285 286 287 288 288 289 289 289 288 291 291
295 295 295 295 295 294 295 294 294 292 292 292 292 291 290 289 287 287 286 284 283 284 284 284 283 284 284 283 283 284 285 285 285 286 286 287 288 289 289 288 288 292 291
295 295 295 295 295 294 293 293 292 292 291 291 290 289 288 287 286 285 283 282 282 282 282 282 282 282 282 282 283 284 284 284 285 285 286 287 287 289 289 288 288 291 289
295 295 294 295 295 295 294 292 290 290 289 289 288 288 287 286 285 284 283 282 282 281 281 281 282 282 282 282 282 283 284 284 284 284 285 285 286 288 289 289 290 289 287
295 294 294 294 294 295 293 292 290 288 287 288 288 287 286 285 284 283 283 282 281 281 281 281 281 281 282 282 283 283 282 283 284 284 284 284 286 286 288 289 289 287 286
295 295 294 294 293 294 293 292 290 287 286 287 287 286 285 284 284 283 282 281 279 280 281 281 282 282 282 281 281 280 280 281 282 282 283 283 284 285 286 288 288 287 287
295 295 294 293 293 292 292 291 288 286 286 287 286 285 284 284 282 281 280 279 279 280 280 281 280 279 280 280 280 280 281 281 281 282 282 283 284 285 285 287 287 287 287
294 294 294 293 292 291 290 289 286 285 286 286 285 284 284 283 281 281 279 278 278 279 280 279 278 279 280 280 281 281 281 281 281 282 282 283 284 285 285 286 286 286 287
294 294 294 292 291 290 289 287 286 285 284 285 284 284 283 282 281 280 278 278 278 278 278 277 279 280 280 281 282 282 282 282 282 282 283 283 284 285 285 286 286 287 287

GFSMA_925_thetae_015.txt.gz
Theta_e
323 321 321 320 318 317 316 314 312 311 310 310 310 309 309 308 307 307 308 308 307 308 309 313 313 312 310 309 307 306 306 309 310 311 311 312 313 314 315 318 320 319 317
324 322 320 317 316 315 312 310 310 310 310 309 309 309 308 308 307 306 305 307 306 308 308 310 309 308 307 307 306 306 306 306 306 307 308 308 309 309 310 312 315 318 319
322 318 316 315 314 311 311 311 310 310 309 309 309 309 308 307 306 305 304 301 303 304 308 306 304 305 305 305 305 304 304 304 304 305 305 306 306 307 307 307 309 313 316
316 314 313 312 311 311 311 311 310 310 309 308 308 306 304 304 304 303 302 302 303 306 307 305 303 302 303 303 303 302 302 303 304 303 303 304 304 304 304 305 305 306 311
313 314 313 311 311 311 310 309 309 308 308 309 306 304 303 303 302 301 299 299 298 298 302 303 300 301 299 300 300 300 301 301 301 301 302 302 301 301 301 302 303 304 305
311 311 311 311 310 309 309 308 306 307 306 305 304 302 301 300 301 299 298 297 297 297 297 297 296 296 296 296 297 297 298 298 298 300 300 299 299 298 299 300 301 302 303
310 310 309 309 308 308 307 306 305 303 302 304 303 300 300 300 299 298 297 297 296 295 295 295 296 295 294 294 294 295 295 296 296 296 296 296 296 296 297 298 299 301 302
309 308 306 305 304 304 304 305 304 303 303 303 301 299 297 298 297 297 296 296 294 294 294 294 294 294 293 292 292 292 293 294 293 293 294 294 294 294 295 297 298 299 300
305 302 299 298 298 298 300 301 303 303 303 302 300 299 296 295 295 296 295 294 293 293 292 293 293 292 292 292 292 292 292 292 293 293 293 292 293 293 294 295 296 297 299
301 299 298 298 298 298 298 298 301 303 302 300 299 297 296 295 292 291 293 293 293 292 292 292 292 291 291 292 291 291 291 290 290 291 291 291 291 292 293 294 295 296 299
298 298 298 298 297 299 301 302 302 302 300 299 298 297 297 295 293 292 290 291 292 292 292 292 291 291 291 290 290 289 289 290 289 290 290 290 291 291 292 294 294 295 297
298 298 298 297 299 300 302 301 300 299 299 298 297 296 295 293 293 292 290 291 291 291 291 290 291 291 290 289 289 289 289 289 288 289 289 289 290 290 290 292 292 293 296
298 297 297 297 298 300 300 299 299 298 298 297 297 296 295 294 293 292 291 290 289 290 290 290 290 290 290 289 289 288 288 288 287 288 288 289 289 289 289 290 291 292 295
297 297 296 296 297 300 299 298 298 297 297 297 296 296 294 293 292 292 291 290 287 288 289 289 289 289 289 288 288 287 287 287 286 287 287 287 287 288 289 290 291 292 294
297 296 296 296 296 296 299 298 298 297 297 296 295 295 294 292 291 291 291 290 289 287 288 288 288 288 288 287 287 286 285 285 286 285 285 285 287 288 289 290 291 291 292
296 296 296 295 295 295 296 297 297 296 294 295 294 293 293 292 292 291 290 289 289 288 285 287 286 286 286 285 285 284 284 285 284 284 285 285 286 287 289 289 290 290 290
296 296 295 295 295 295 295 295 294 294 293 293 293 292 292 291 290 289 288 287 287 285 284 284 284 284 283 283 283 283 283 283 284 285 285 286 286 287 288 288 289 289 288
296 295 295 295 295 295 295 294 294 294 293 292 292 291 291 290 289 287 287 286 284 283 283 282 282 282 282 282 282 282 282 283 283 284 285 284 285 287 287 287 288 289 289
296 295 294 295 295 295 294 293 293 292 292 292 291 291 289 289 287 286 285 284 283 282 282 281 281 281 281 281 281 282 282 282 283 284 284 284 285 286 286 286 289 289 289
296 295 294 294 295 295 294 293 293 291 290 290 289 288 288 287 286 285 284 283 282 282 281 281 280 280 281 281 282 282 282 282 282 281 283 285 283 284 285 288 289 289 290
296 295 294 294 294 295 294 294 293 292 289 288 288 288 287 286 285 284 283 283 282 282 281 281 280 280 280 281 281 282 281 281 280 281 281 282 282 283 285 287 288 289 288
296 296 295 294 294 294 294 294 293 291 289 287 287 287 286 285 284 283 283 282 281 280 280 280 281 281 281 281 282 281 280 279 279 280 281 281 282 282 284 285 287 287 287
296 295 295 294 294 293 293 293 292 291 288 286 287 287 286 284 284 283 282 281 281 278 280 279 280 278 278 278 279 280 279 280 280 280 280 281 282 282 284 284 285 287 287
294 294 294 295 294 293 293 292 291 290 287 286 286 286 285 284 283 282 282 280 279 277 278 279 279 278 278 279 280 281 281 281 280 281 281 281 282 283 283 284 284 286 286
293 294 294 294 294 293 292 291 290 287 285 286 285 285 284 284 282 282 281 280 278 277 278 278 278 278 279 280 280 281 282 282 281 281 281 282 283 283 283 285 285 285 286
293 293 293 293 292 291 290 289 288 286 285 285 285 284 283 283 281 281 281 279 278 279 278 278 279 278 278 280 280 280 281 281 282 282 282 283 283 283 284 285 285 286 286

GFSMA_925_thetae_018.txt.gz
Theta_e
322 320 319 317 315 314 314 312 310 309 309 309 308 308 308 308 307 305 304 304 304 307 312 315 313 311 310 309 308 308 307 307 307 308 308 308 308 308 309 309 310 312 314
321 320 319 317 315 312 311 310 310 310 309 309 309 308 307 306 305 305 303 303 302 306 309 312 309 308 308 307 306 306 305 305 306 307 305 306 306 305 305 306 307 308 309
324 320 316 312 311 311 311 310 310 309 309 308 307 307 305 304 303 303 302 302 304 308 309 307 305 306 306 306 305 304 304 305 305 304 304 305 304 303 302 303 304 305 306
317 315 312 311 310 310 310 310 309 309 308 308 307 306 305 303 300 299 299 297 298 304 306 305 305 304 303 303 303 303 303 302 302 302 303 303 302 301 301 301 302 302 304
313 313 312 311 310 310 309 308 307 306 306 307 305 304 303 301 299 298 297 297 296 297 300 302 298 297 297 299 299 299 300 300 299 301 301 300 300 299 299 299 300 301 302
312 312 311 310 310 309 308 307 306 305 303 303 303 302 301 300 298 297 297 296 295 295 294 295 295 295 295 296 296 296 297 297 298 298 297 297 297 297 297 297 298 299 300
310 310 310 309 308 306 305 304 304 303 302 303 302 301 300 299 298 297 296 294 294 293 293 293 293 294 293 292 293 294 294 295 296 295 294 295 295 295 295 295 296 297 299
309 309 307 306 304 303 303 303 303 303 303 302 300 298 296 298 297 296 295 294 293 293 293 292 292 291 291 292 292 292 293 293 293 294 294 293 293 293 294 294 295 296 297
308 307 303 300 298 298 297 298 301 303 303 299 299 299 295 294 293 295 293 293 293 293 292 292 292 291 291 291 291 290 291 291 291 292 292 292 292 293 293 293 293 294 296
303 300 299 298 298 297 299 300 300 301 302 300 298 297 296 295 291 290 293 293 292 292 291 291 291 291 291 290 289 289 289 289 290 291 291 291 292 292 292 292 292 293 295
298 298 298 297 297 298 301 301 301 300 299 298 297 297 296 294 292 290 289 291 291 291 290 290 290 290 290 290 289 289 290 290 289 290 290 290 290 290 291 291 291 292 294
298 298 297 296 298 299 301 300 300 298 297 297 297 296 294 293 293 291 288 289 289 290 290 290 290 289 289 289 289 289 289 287 287 288 289 289 289 289 289 289 290 291 292
297 297 296 296 297 299 300 299 298 298 297 297 297 296 295 294 293 292 291 289 288 290 290 289 289 289 289 289 288 287 287 287 286 287 287 288 287 287 287 288 289 290 292
297 296 296 296 296 298 299 298 298 297 296 297 296 295 295 293 292 291 290 290 287 287 288 288 288 288 288 287 286 286 286 286 285 286 286 286 286 286 287 288 289 290 291
296 296 295 295 295 295 296 296 298 297 297 297 295 295 294 293 292 292 291 289 288 285 286 288 287 286 285 285 285 285 284 283 285 284 284 286 286 286 287 288 289 290 291
296 295 295 295 295 295 295 295 295 294 294 293 294 294 293 293 292 291 290 289 288 286 284 285 285 283 282 282 282 283 282 283 282 283 285 285 286 286 287 288 288 289 289
296 295 295 295 295 295 295 295 294 294 293 293 293 292 292 291 291 290 288 287 286 284 283 283 282 282 281 280 281 281 281 282 282 283 284 285 285 285 286 286 287 287 288
297 296 295 294 294 295 295 294 294 293 293 292 292 291 291 291 289 288 287 286 284 283 282 281 282 281 280 280 281 281 281 281 282 282 283 283 284 286 286 285 286 287 286
297 296 296 295 294 295 295 294 294 293 292 291 291 291 289 289 288 286 285 284 283 282 282 281 281 280 280 280 281 281 281 282 281 281 281 281 283 284 284 285 285 287 289
296 296 296 295 294 294 295 294 294 292 291 290 290 289 288 287 286 285 284 283 282 282 282 281 280 280 280 280 280 280 281 281 280 279 279 280 281 281 281 283 285 287 289
296 296 295 295 295 294 294 294 294 294 292 289 288 287 287 286 286 285 283 283 282 281 280 279 279 280 280 280 280 280 280 280 279 279 280 280 280 280 281 282 284 285 289
295 295 295 295 295 294 294 294 294 293 292 289 287 287 287 286 285 284 283 282 281 280 279 279 279 279 279 278 278 278 279 279 280 280 280 280 281 281 281 282 284 285 286
295 295 295 295 295 295 294 294 294 292 290 289 287 287 286 285 284 283 283 282 281 280 278 277 278 279 278 278 279 279 279 280 280 281 280 280 281 281 282 283 283 284 285
294 293 293 293 294 294 294 293 293 292 291 289 286 286 286 285 284 283 282 282 281 281 278 278 278 278 278 279 279 280 281 281 281 281 281 280 282 282 282 283 284 284 285
293 293 293 293 293 293 293 292 292 290 289 287 286 286 285 284 283 282 282 281 281 280 279 279 279 279 278 278 279 280 280 280 280 281 281 281 282 282 282 283 284 285 285
293 292 292 292 292 292 292 292 291 289 288 286 285 285 284 283 283 282 281 281 280 279 279 279 279 279 278 278 277 278 279 279 280 281 282 282 282 282 283 283 283 284 285

GFSMA_925_thetae_021.txt.gz
Theta_e
323 321 319 317 315 313 313 311 310 309 309 308 308 308 307 306 305 304 303 303 303 304 311 315 314 311 310 309 308 307 307 307 308 307 306 307 306 305 305 305 305 306 308
321 318 316 315 313 311 310 310 309 309 309 308 307 306 304 303 302 302 302 303 303 309 313 312 309 308 308 307 306 306 306 307 306 305 305 306 305 304 303 302 302 303 305
320 318 315 313 311 311 310 310 309 309 308 307 306 305 303 301 300 299 299 301 306 309 307 306 306 306 306 306 305 304 305 304 303 303 304 305 304 303 302 301 301 301 302
320 316 312 310 310 310 310 309 308 308 307 306 306 304 302 300 298 298 297 297 297 304 305 302 304 302 301 302 302 302 302 302 301 301 302 302 301 300 300 300 299 300 301
314 312 311 310 310 310 309 308 307 305 304 304 303 302 300 299 298 297 296 296 296 296 297 297 296 295 297 298 298 298 298 299 299 300 299 299 298 298 298 298 298 298 299
313 312 311 310 310 308 307 305 304 303 303 302 302 301 299 298 297 297 296 295 294 294 294 294 294 294 295 295 295 295 296 296 297 297 296 296 296 296 296 296 296 297 297
312 311 310 309 307 305 303 303 303 303 302 302 302 301 298 297 296 296 295 294 293 293 292 292 292 292 292 291 291 293 294 295 295 295 295 295 295 294 294 295 295 295 296
310 309 308 306 304 302 300 301 301 302 302 301 301 299 295 297 296 295 294 294 293 293 293 292 291 291 291 291 291 291 293 293 293 294 293 293 294 294 294 294 294 294 295
309 306 303 301 299 298 297 297 298 302 301 299 299 299 294 294 293 295 293 293 293 293 292 291 291 291 290 290 290 289 290 289 290 291 292 292 292 293 293 292 293 293 294
303 301 299 298 297 296 296 298 299 300 301 299 297 297 297 295 291 291 293 292 292 292 291 291 290 289 289 290 290 289 289 289 290 291 291 291 291 292 292 292 292 292 293
299 298 298 297 296 296 298 301 301 300 300 299 297 297 296 295 293 290 289 291 291 291 290 290 290 289 289 289 289 289 290 290 289 290 290 290 291 291 290 290 291 291 291
298 297 297 296 296 298 299 300 299 297 296 296 296 296 295 294 292 291 288 289 289 290 290 290 290 289 288 288 288 288 288 288 287 288 288 289 289 289 289 289 289 289 290
297 297 296 295 295 296 299 299 298 297 296 296 296 296 295 295 293 292 290 289 288 289 290 290 289 288 288 287 287 286 287 286 285 286 287 287 287 287 287 287 288 289 290
297 296 296 295 295 298 299 298 298 298 296 296 296 295 295 295 293 292 290 289 287 287 288 288 288 288 287 286 285 284 284 284 284 285 285 285 285 286 287 287 288 288 289
296 296 295 294 295 295 295 295 297 298 297 297 297 295 294 294 293 291 291 290 288 285 286 287 287 286 284 282 281 282 282 282 283 283 283 284 285 285 287 287 288 288 289
296 296 295 295 295 295 295 295 295 294 294 294 293 294 294 293 293 292 291 289 289 287 282 285 284 283 282 281 280 281 281 281 281 282 283 284 284 285 285 286 287 287 288
296 295 295 294 294 294 294 295 295 294 293 293 293 293 293 292 292 291 290 288 287 285 283 283 282 282 281 280 280 280 281 281 281 282 283 283 283 283 285 286 286 286 287
297 296 295 295 294 294 294 295 295 294 293 293 292 292 291 291 291 290 288 287 285 284 282 281 282 282 281 279 280 280 281 281 281 281 282 281 281 282 284 284 285 285 286
297 296 296 296 295 293 294 295 294 294 293 293 292 291 291 290 289 288 287 285 284 283 282 281 281 280 279 280 280 280 280 280 280 280 280 280 280 281 282 282 283 284 285
297 296 296 296 295 294 294 294 294 294 293 293 291 291 290 289 288 286 286 285 283 282 282 281 280 279 279 279 279 279 279 279 279 279 280 280 280 281 281 281 281 283 285
296 296 295 296 295 295 294 294 294 294 293 292 290 289 288 287 286 286 285 284 283 282 281 280 279 279 278 279 278 278 278 278 279 280 280 280 281 281 281 281 281 283 285
295 295 299 296 295 295 295 295 294 294 293 291 289 288 289 287 286 286 284 283 282 281 280 279 278 278 278 278 278 278 278 278 280 280 280 280 280 281 282 282 282 282 285
298 299 296 295 294 293 293 294 294 294 293 291 289 291 287 286 286 285 284 282 281 280 280 278 277 278 278 278 279 278 279 279 280 280 280 280 281 281 282 282 282 284 284
298 295 294 293 293 293 293 294 294 293 292 290 291 290 287 286 285 284 283 282 281 281 281 278 278 279 279 279 279 279 279 279 279 279 280 280 281 281 282 282 283 285 285
296 294 293 292 292 292 292 292 293 293 291 290 289 289 286 285 285 284 283 282 281 281 279 279 279 279 279 279 278 278 278 278 278 279 280 280 281 281 282 282 283 282 284
294 293 292 292 291 291 292 292 292 291 290 290 288 287 286 285 284 283 282 281 281 281 280 280 280 280 280 279 279 277 278 278 278 279 280 280 280 282 282 282 283 282 284

GFSMA_925_thetae_024.txt.gz
Theta_e
324 318 317 315 314 313 313 311 309 308 308 308 307 306 306 304 304 303 303 303 303 306 312 315 313 311 310 309 308 307 307 308 306 306 307 306 305 305 304 303 303 303 303
322 319 316 315 314 312 310 309 309 309 308 307 306 304 304 303 302 302 301 302 305 309 312 310 309 309 309 307 306 305 306 305 304 304 304 305 305 304 303 302 301 301 301
319 317 316 314 312 311 310 309 309 308 308 306 305 303 302 301 301 300 300 301 307 308 308 307 307 307 306 305 304 304 304 303 302 302 302 303 302 301 300 300 300 300 300
317 317 315 312 310 310 309 309 308 307 306 305 304 302 300 299 298 298 298 298 303 305 304 303 302 299 299 299 300 300 300 300 300 300 301 301 300 299 299 299 299 298 299
318 316 312 310 310 309 308 308 307 305 303 303 302 300 298 297 297 296 296 296 296 295 295 295 295 295 296 298 298 298 297 298 298 299 299 298 297 297 297 296 297 297 298
315 313 311 310 309 309 308 305 303 303 302 302 300 299 297 296 296 295 295 295 294 294 294 293 293 292 293 293 293 295 295 296 297 297 297 297 297 296 295 295 295 296 296
313 311 310 309 308 306 303 303 302 302 301 301 300 298 296 295 295 294 294 294 294 293 292 292 291 291 291 291 291 293 294 294 294 295 295 295 294 294 294 295 295 295 295
311 310 309 307 303 301 299 299 299 301 301 301 300 298 295 296 295 293 293 294 293 293 292 291 291 291 291 290 290 290 291 292 292 292 292 293 293 293 294 294 294 294 294
309 308 305 301 298 297 296 296 297 299 300 298 299 299 295 295 293 294 293 293 293 292 291 291 290 290 289 290 289 289 289 289 290 291 291 291 292 292 293 293 293 293 293
306 303 301 298 297 296 296 297 299 300 301 299 298 298 297 295 293 292 293 293 292 292 291 290 290 290 289 289 289 288 288 289 289 291 291 291 291 292 292 292 292 292 293
301 300 298 297 296 295 296 298 300 300 299 298 298 297 296 295 294 290 289 291 292 292 291 290 290 290 289 288 288 288 289 289 289 289 290 290 290 291 291 291 291 291 291
299 298 297 296 295 297 298 299 299 298 297 296 295 295 295 294 293 291 288 288 289 291 291 290 290 289 289 288 288 287 287 288 287 287 287 288 289 289 289 289 288 289 289
298 297 296 295 297 298 297 299 298 297 297 296 295 295 295 295 294 292 291 289 288 289 290 290 290 289 288 287 287 286 285 284 284 285 285 286 286 287 286 287 288 288 289
299 297 296 296 298 295 294 297 298 298 297 296 296 296 295 295 294 293 292 290 287 287 288 290 289 288 287 285 284 282 281 281 281 283 284 284 284 285 286 287 287 288 289
298 297 295 298 295 294 294 295 296 298 297 297 296 296 295 294 294 293 291 290 289 288 288 288 288 287 285 283 282 281 280 280 281 282 283 283 283 284 285 286 287 287 287
298 296 297 295 294 295 294 294 295 295 295 294 293 293 293 293 293 292 292 291 289 288 286 286 285 284 283 282 281 280 280 280 281 281 282 282 283 284 284 284 284 285 286
297 296 295 294 294 294 294 294 295 294 294 293 293 293 293 293 293 292 291 290 289 287 284 284 283 283 282 282 279 279 280 280 280 280 281 282 282 282 282 282 283 286 285
296 296 295 295 294 294 294 295 294 294 294 293 293 293 292 292 291 291 290 289 288 286 284 282 282 282 282 280 278 279 279 279 279 279 281 281 281 281 281 282 282 284 284
297 296 295 295 294 295 296 294 294 294 294 294 293 293 292 291 291 290 289 288 286 285 283 281 281 281 280 279 278 279 279 278 278 279 280 280 281 281 282 282 282 282 283
297 296 296 295 295 297 295 294 294 294 294 294 293 293 292 291 291 289 288 286 285 284 282 281 281 280 279 278 278 278 278 278 278 279 280 280 280 280 281 281 281 282 283
297 296 295 295 298 298 294 294 294 294 294 294 293 292 291 290 289 287 286 285 284 283 282 281 280 279 278 277 278 277 277 278 278 280 280 280 280 280 281 282 282 282 282
296 294 295 298 298 296 295 294 293 294 294 293 292 292 290 288 290 287 286 285 284 283 282 280 279 278 277 278 278 278 278 278 279 279 279 279 280 280 281 281 282 282 283
296 298 297 298 296 295 293 293 293 293 293 293 292 291 289 290 289 286 285 284 283 282 281 280 280 278 277 278 279 279 278 278 279 279 279 279 279 280 281 281 282 283 285
298 296 297 296 294 294 293 293 292 292 293 293 292 291 289 290 288 286 285 284 283 281 281 280 280 279 278 279 279 279 278 278 278 278 278 279 279 280 280 282 282 283 283
297 298 296 293 293 293 292 292 291 291 292 292 292 290 290 289 288 286 285 283 282 282 281 281 279 279 279 279 279 279 278 277 277 278 278 279 280 280 280 282 282 283 282
297 294 293 293 292 291 290 291 291 291 291 291 290 289 289 288 286 285 284 283 282 282 281 280 279 280 280 280 280 279 277 277 277 277 279 279 279 280 281 282 282 282 282

GFSMA_925_thetae_027.txt.gz
Theta_e
321 321 316 314 314 313 312 311 310 309 308 308 307 307 305 304 304 303 306 303 303 306 315 315 313 311 310 308 307 307 308 306 305 305 305 306 305 304 303 302 302 301 302
322 318 316 315 314 312 311 310 309 309 308 307 306 305 303 303 303 302 303 305 306 311 312 311 310 310 310 307 305 305 305 304 304 303 302 304 303 302 301 301 300 300 300
321 319 316 315 312 311 310 309 309 308 307 306 304 303 303 302 301 300 300 303 306 308 308 308 307 305 305 304 303 302 301 301 301 301 301 302 302 301 300 299 298 299 299
321 317 315 313 311 310 309 309 308 307 306 304 303 301 300 299 299 298 299 303 305 303 304 304 303 300 300 300 300 300 300 300 300 300 300 300 299 298 298 297 297 297 297
317 316 315 312 310 309 309 308 308 305 305 303 301 299 298 297 297 297 297 296 296 296 296 295 294 294 294 296 297 297 297 298 298 299 299 299 298 298 297 297 296 296 296
317 314 312 310 309 308 308 307 303 302 303 302 300 298 297 296 295 296 296 295 295 295 294 293 294 293 292 292 293 294 295 296 296 297 297 297 297 297 296 295 296 296 296
315 312 310 309 309 308 305 303 302 302 301 300 300 299 297 296 295 294 294 294 294 293 293 293 292 292 292 291 291 293 293 293 293 294 294 294 295 295 295 295 295 296 295
313 311 310 309 307 305 301 300 301 302 301 300 302 301 303 299 297 295 294 293 293 293 293 292 291 291 291 291 291 289 290 290 291 292 292 293 293 293 294 294 295 295 295
311 310 309 307 303 299 297 296 298 300 301 299 300 301 302 302 299 296 294 294 293 293 293 292 291 290 290 290 290 290 288 288 291 291 291 292 292 293 293 294 294 294 294
310 309 306 301 299 297 296 297 298 299 300 300 298 298 299 299 300 299 296 295 294 294 293 293 292 291 290 290 289 289 289 289 289 290 290 290 291 291 291 292 292 293 294
308 306 302 299 297 295 297 299 299 299 298 298 299 299 298 296 295 296 296 295 294 293 293 292 292 291 290 290 290 289 288 287 288 289 289 289 289 289 290 290 291 291 291
303 301 299 298 296 296 301 303 300 297 297 297 298 297 296 296 296 295 295 295 294 293 293 292 292 291 290 289 288 287 287 286 285 285 286 287 287 287 288 288 289 289 289
303 300 299 297 295 300 303 298 297 297 297 297 297 297 296 296 295 295 294 294 294 293 292 292 291 291 289 288 287 285 284 283 282 282 284 284 285 286 286 286 287 288 289
303 301 298 296 296 300 297 297 297 298 297 296 296 296 296 296 295 295 294 294 295 293 292 291 291 290 288 287 286 284 283 282 281 281 283 284 284 284 285 285 286 287 288
304 300 297 295 298 301 296 297 298 296 297 297 297 296 296 296 295 294 294 293 293 294 293 291 290 288 287 286 284 283 283 282 281 282 282 282 283 284 284 285 285 286 286
302 298 296 296 300 296 296 295 295 295 296 297 296 294 295 295 294 293 293 292 292 292 292 290 288 287 286 284 283 282 281 281 281 281 281 282 282 283 283 284 284 284 284
301 298 296 299 295 295 294 294 293 294 295 295 294 293 293 293 293 293 293 292 291 290 290 289 287 285 284 284 283 282 281 281 281 281 281 281 281 282 282 282 282 283 283
300 298 297 295 295 294 294 294 296 295 294 294 294 293 293 293 293 293 292 291 290 289 288 288 287 285 284 283 282 281 281 281 281 280 280 281 281 281 282 282 283 283 283
299 297 296 295 294 294 294 295 296 294 294 294 294 294 294 293 293 292 291 291 290 288 286 286 286 284 283 282 281 281 281 281 280 280 280 280 281 281 282 282 282 283 283
298 296 295 295 294 295 295 297 296 294 294 294 294 293 293 293 293 292 291 290 289 287 286 285 285 284 283 282 281 281 281 281 280 280 281 281 281 281 282 282 282 282 283
297 296 295 295 294 298 298 297 294 294 294 294 293 293 293 293 292 292 290 289 287 286 286 285 284 284 283 282 281 281 280 280 280 281 281 281 281 282 282 283 283 283 283
296 295 295 294 296 297 298 297 294 293 293 293 293 293 293 293 292 291 289 288 286 286 285 285 284 283 283 281 280 280 280 281 281 281 280 280 281 282 282 283 282 282 282
294 294 296 297 296 296 298 294 294 292 292 292 293 293 292 291 291 289 290 287 286 285 284 284 283 283 282 280 280 280 280 280 280 280 280 280 281 282 282 282 282 282 283
297 297 296 296 296 297 296 294 294 292 292 292 292 292 291 290 289 288 288 287 286 285 283 282 282 282 281 280 280 280 280 280 280 280 280 280 281 282 282 282 283 282 283
296 296 296 296 297 297 295 292 291 290 291 291 291 291 290 290 289 290 287 286 285 284 282 282 281 281 279 279 280 281 281 280 280 280 280 280 281 281 282 282 283 283 282
297 297 297 297 295 293 292 291 290 290 290 290 291 291 291 289 289 289 287 286 285 285 283 282 281 281 280 280 280 280 281 280 280 280 280 279 280 280 281 282 283 283 284

GFSMA_925_thetae_030.txt.gz
Theta_e
323 322 320 318 317 316 316 316 314 313 312 310 310 309 307 306 306 306 308 303 305 312 316 315 314 312 310 308 307 308 307 306 305 304 304 305 304 303 302 302 301 301 301
322 320 319 318 316 316 316 314 313 312 311 310 309 307 305 305 305 305 306 308 309 311 312 312 311 312 310 307 306 305 305 303 303 302 302 303 303 302 301 301 300 299 300
321 320 319 318 317 316 314 313 312 311 310 308 307 305 304 304 303 305 305 305 306 307 308 309 307 304 304 303 303 302 302 302 301 302 301 302 302 301 300 299 298 298 298
321 320 319 318 316 314 313 313 313 311 309 307 305 304 303 303 303 303 303 303 303 303 303 304 304 302 301 301 300 300 299 299 300 300 300 300 300 300 299 299 298 297 298
321 320 319 317 315 314 314 313 312 309 307 306 305 303 303 302 302 301 301 301 300 300 299 298 295 294 294 293 295 296 297 297 298 299 299 299 300 300 299 299 297 297 297
319 319 318 316 314 313 313 312 309 306 306 305 303 303 303 302 301 301 300 299 299 299 298 298 297 297 294 292 294 294 295 296 296 296 296 296 296 296 297 297 296 296 297
318 318 317 315 313 313 312 310 307 306 305 304 305 305 304 302 301 300 300 299 298 298 298 296 296 295 295 293 291 292 293 293 293 294 294 294 295 295 295 295 296 296 296
319 318 316 314 312 312 310 307 305 304 304 304 307 307 311 306 302 300 299 299 299 298 296 296 295 294 294 294 293 290 291 291 292 293 293 293 293 294 294 294 295 296 296
318 316 315 313 312 310 308 306 305 304 306 305 304 306 309 308 305 302 300 299 298 297 297 296 295 294 293 293 293 293 291 289 290 291 292 292 292 292 292 293 293 294 294
317 314 313 312 310 306 304 303 303 305 305 306 303 303 303 301 302 303 301 299 298 297 297 296 295 295 294 293 293 292 291 289 288 290 290 290 290 290 291 291 292 292 293
313 312 310 308 306 304 303 303 304 304 305 305 304 304 302 300 299 300 302 300 298 297 296 296 295 294 294 293 293 292 290 287 286 287 287 287 287 288 289 289 290 290 291
309 308 307 306 305 303 303 304 302 304 304 303 303 301 299 300 301 299 299 298 298 297 296 295 294 294 294 293 292 290 288 286 285 284 285 285 286 286 287 288 288 289 289
307 307 305 305 302 301 302 302 302 302 301 302 300 300 300 299 298 297 297 297 297 296 296 294 294 294 293 292 291 289 287 286 284 284 284 284 285 286 286 286 287 287 288
307 305 304 303 301 299 301 302 303 301 302 301 301 300 299 298 297 297 297 297 298 296 295 295 294 293 292 291 289 287 287 286 285 283 283 284 284 284 285 285 286 286 287
307 305 305 302 301 300 301 303 301 302 300 301 301 300 299 297 298 297 296 295 295 296 296 294 293 292 291 290 289 287 286 286 284 282 283 283 283 283 284 284 285 285 286
307 305 303 301 301 297 300 302 301 300 300 301 300 299 298 297 296 296 295 295 294 294 296 293 293 292 290 289 288 286 286 285 283 283 283 283 282 282 283 283 284 284 284
308 303 302 300 300 297 302 300 299 299 299 299 299 297 297 296 295 295 295 294 294 294 294 293 292 291 290 288 287 286 285 284 284 283 283 282 282 282 282 283 283 283 283
305 302 301 301 297 301 300 298 297 297 298 298 297 297 296 295 295 295 295 295 294 293 293 293 292 290 290 288 287 286 285 284 284 284 282 282 281 281 282 282 283 283 283
304 302 301 298 299 297 297 296 297 298 299 297 297 297 296 296 296 296 295 295 294 293 292 291 291 290 289 287 286 285 284 284 284 283 282 282 282 282 282 282 283 283 283
302 300 298 297 297 297 296 296 298 297 299 297 296 296 296 296 296 296 296 295 294 293 293 291 290 289 288 287 286 285 284 284 284 283 283 283 283 283 283 283 283 283 284
301 298 297 296 297 296 298 298 298 297 298 296 296 296 296 296 296 295 295 295 294 293 292 291 290 289 288 287 286 285 284 284 284 284 283 284 283 283 284 284 284 284 283
297 297 296 296 296 298 297 296 297 297 296 296 296 296 296 296 295 294 293 293 293 293 292 291 290 288 287 286 285 284 284 284 285 284 283 283 283 283 284 284 284 283 283
296 295 296 297 298 296 296 296 297 296 295 296 295 295 295 294 294 294 293 292 291 290 290 289 289 288 287 286 285 284 284 284 284 283 282 283 283 283 284 284 284 283 284
296 297 297 296 296 297 297 296 297 295 295 294 294 293 293 293 293 294 293 292 290 290 288 286 286 286 285 285 284 283 283 283 283 283 283 283 283 283 284 284 284 284 283
298 298 297 297 297 298 296 296 295 293 293 292 292 292 292 292 292 293 292 292 292 291 289 287 286 285 284 283 282 282 283 283 284 284 283 283 283 283 283 283 285 284 284
299 298 297 297 297 296 295 294 292 291 292 292 292 292 292 292 291 292 291 291 291 291 290 287 284 283 282 282 281 281 282 283 284 284 283 282 282 282 283 283 284 284 284

GFSMA_925_thetae_033.txt.gz
Theta_e
324 324 324 323 321 321 319 319 318 315 314 313 311 310 308 308 308 308 312 301 305 314 318 316 314 313 310 308 309 308 307 306 305 304 303 303 304 304 303 302 301 300 300
324 324 323 322 321 320 320 318 316 315 313 312 311 308 307 307 307 307 309 307 306 311 313 313 313 312 310 307 306 305 304 303 303 303 303 302 303 303 302 301 300 299 299
325 324 323 322 321 320 319 317 315 314 313 310 309 308 307 306 306 306 306 308 308 304 308 309 307 306 305 304 304 303 302 302 301 301 301 301 302 302 301 300 300 300 299
326 325 323 322 321 320 318 316 315 314 312 310 308 307 307 306 306 305 305 305 305 306 304 305 305 303 302 300 300 299 299 299 300 300 300 301 301 301 301 301 301 300 299
325 325 324 322 320 319 317 316 315 313 311 309 309 307 307 307 306 304 304 304 303 301 302 300 298 297 295 295 295 296 297 298 298 298 298 298 298 298 298 298 299 298 298
325 325 323 321 320 319 317 315 314 310 310 309 306 306 307 307 306 305 304 303 302 302 301 301 299 299 296 295 294 294 295 296 296 296 296 296 296 296 296 296 297 297 297
325 324 323 321 320 318 316 315 312 310 308 307 309 310 309 307 306 305 304 303 302 301 300 299 299 298 297 295 293 292 292 293 294 294 295 295 295 295 295 295 296 296 297
324 324 323 321 319 317 316 314 310 309 309 308 311 312 314 310 307 305 304 302 302 301 300 299 298 297 296 296 295 293 292 292 294 294 294 294 294 294 294 294 294 294 295
325 323 322 321 319 317 315 313 310 309 308 309 309 310 313 313 308 306 304 303 302 301 300 299 298 297 296 296 295 295 293 292 292 292 292 292 291 291 292 292 292 293 293
325 323 322 321 318 316 313 312 309 308 308 309 311 308 308 308 307 307 305 303 302 301 300 299 298 298 297 296 295 295 294 292 290 289 289 289 289 289 290 290 291 291 292
324 323 321 319 317 315 311 309 307 307 308 309 308 308 308 306 304 304 305 304 302 300 299 299 298 297 296 296 296 295 292 290 289 287 288 287 288 288 288 289 289 290 290
321 320 318 316 313 310 308 307 306 306 307 307 307 307 306 304 304 304 304 303 302 301 300 298 297 296 296 296 295 293 291 290 288 287 286 287 286 286 287 288 288 288 289
316 314 313 310 309 308 306 305 304 303 305 305 307 306 303 304 303 301 300 300 300 300 299 298 297 296 296 295 294 292 290 289 288 286 286 286 285 285 286 286 287 287 288
314 317 318 309 307 306 305 304 301 303 304 304 305 303 304 303 301 300 300 299 300 299 298 297 297 296 296 295 293 292 291 289 288 286 286 285 284 285 285 285 286 286 286
316 316 310 308 305 304 303 301 302 302 304 304 303 303 303 302 300 300 300 298 298 298 298 296 296 295 295 294 293 291 290 289 287 286 285 284 284 284 284 284 284 285 285
312 310 308 305 304 303 300 301 301 304 303 302 302 302 302 301 300 299 298 297 297 297 297 296 295 295 294 293 292 291 290 288 287 286 285 284 284 284 283 283 283 284 284
312 310 308 306 304 302 300 299 301 302 302 302 301 301 301 301 299 298 297 297 296 296 296 295 295 294 294 293 292 291 290 288 287 286 285 284 284 283 282 283 283 283 284
315 312 309 305 302 301 301 301 302 300 300 300 300 301 301 300 298 297 297 297 296 296 296 296 295 294 293 292 291 291 289 288 287 286 285 284 283 283 283 283 283 283 283
313 311 306 302 301 301 300 302 300 299 300 298 299 301 300 299 298 297 297 297 297 296 296 295 295 294 293 292 291 290 289 288 287 286 285 285 284 284 284 283 283 283 284
309 305 302 301 301 299 300 298 298 299 298 298 299 300 299 298 298 298 297 297 297 297 296 295 295 294 293 292 291 289 288 288 287 286 286 286 285 285 284 284 284 284 284
305 303 300 300 299 299 298 298 299 297 297 298 299 299 298 298 297 297 297 297 297 297 296 296 295 294 292 292 291 289 288 287 286 286 286 286 285 285 285 285 285 285 285
303 300 298 299 298 297 298 297 297 298 297 298 298 298 298 297 297 296 296 296 296 296 296 296 295 294 292 291 290 289 288 287 286 286 286 285 285 285 285 285 285 285 284
300 299 298 297 297 298 297 297 297 297 297 296 296 296 297 297 296 295 295 295 295 295 294 293 295 294 293 291 289 288 287 286 286 285 285 285 285 285 285 285 285 284 284
298 298 298 298 299 299 297 297 297 297 296 295 296 296 295 294 294 294 294 294 295 295 294 292 290 292 292 290 288 287 287 285 285 285 285 286 285 285 284 284 284 284 285
301 301 300 299 298 298 298 297 296 295 295 295 294 294 294 294 293 293 293 293 294 294 294 292 291 290 289 288 286 286 285 284 286 285 285 285 285 284 284 284 284 285 284
300 299 298 298 297 297 297 295 293 293 292 292 292 293 293 293 293 292 292 292 292 294 293 293 291 289 288 286 285 284 284 284 285 285 285 285 284 283 284 283 284 283 284

GFSMA_925_thetae_036.txt.gz
Theta_e
325 322 323 322 319 319 318 319 317 315 314 312 311 309 309 308 308 313 310 303 306 318 318 316 315 313 310 309 309 308 306 305 304 304 304 303 304 304 303 302 301 301 300
324 324 326 323 322 321 320 319 317 315 314 313 310 308 308 307 307 310 310 307 303 315 315 315 314 312 310 308 306 304 304 304 303 303 303 302 302 303 303 302 301 301 301
323 325 324 322 322 320 320 318 316 315 313 311 309 308 308 307 307 307 310 309 304 309 312 312 310 307 306 305 304 303 302 301 301 301 301 302 302 302 302 302 302 302 301
324 324 324 323 321 321 319 317 315 314 313 311 309 308 307 307 306 306 306 308 309 304 303 303 305 306 304 303 300 299 299 300 300 300 300 300 299 299 299 299 300 300 300
326 325 325 323 322 320 319 316 316 314 313 310 309 308 307 307 307 306 305 304 305 305 304 301 299 299 298 296 296 296 298 298 298 298 297 297 297 298 298 298 298 298 298
327 325 325 323 321 320 318 316 315 314 312 310 310 308 308 308 307 306 305 304 303 302 302 301 300 299 298 296 295 295 295 296 296 296 296 297 296 296 296 296 296 296 297
327 325 326 323 321 320 318 317 315 311 310 309 308 309 309 308 307 306 305 304 303 302 301 301 300 299 298 296 295 295 294 293 294 295 296 296 295 295 295 294 295 295 295
326 325 325 323 322 320 318 316 315 311 310 308 310 312 312 309 308 307 305 304 303 302 301 300 299 299 297 297 296 295 294 294 293 294 294 294 293 293 293 293 293 293 293
327 325 324 324 322 320 318 316 314 311 310 309 309 310 310 311 309 307 306 304 303 302 302 301 299 299 298 297 296 296 294 293 293 292 292 292 291 291 291 291 291 292 292
328 326 324 323 321 320 319 316 313 310 309 310 309 310 309 308 307 305 306 304 303 302 302 301 300 299 298 297 297 296 295 294 292 291 290 290 290 290 290 290 290 291 291
328 326 325 323 321 319 317 315 312 310 308 309 309 309 311 310 307 305 303 305 303 303 302 301 300 299 298 297 296 296 295 293 292 290 289 289 289 289 289 289 289 290 290
326 327 324 322 320 318 316 312 310 308 308 309 307 308 308 308 306 305 303 304 304 303 302 300 299 298 297 296 296 295 294 292 291 290 289 288 288 288 287 288 288 288 289
327 325 323 320 319 318 317 313 308 307 307 306 307 309 308 306 303 304 302 301 300 300 300 300 299 298 297 296 296 295 293 292 291 289 288 287 287 287 286 287 287 287 287
324 323 321 319 318 318 314 311 307 306 304 305 306 307 306 304 303 302 301 301 298 300 300 299 298 298 297 296 295 295 292 291 291 290 289 287 287 286 286 286 286 286 286
322 321 318 317 317 313 311 307 306 305 303 305 305 305 305 304 303 301 301 300 300 297 296 298 297 296 296 295 294 294 292 291 291 290 288 287 286 286 285 285 285 284 285
320 318 315 316 311 309 308 305 305 303 303 303 304 303 303 303 302 301 300 299 299 298 295 297 296 296 295 295 294 293 292 291 290 289 288 287 286 284 285 285 284 284 284
319 315 313 311 309 306 304 304 303 302 302 303 302 302 301 301 301 302 300 298 298 297 296 296 296 296 295 295 294 293 292 291 290 289 288 287 286 285 285 283 283 284 284
317 314 311 309 307 305 304 303 301 301 302 302 301 300 300 301 301 301 300 298 297 297 297 296 296 296 295 295 294 292 292 291 290 289 288 287 286 285 284 284 284 284 284
316 314 312 309 306 304 303 301 301 300 301 301 300 299 299 300 301 300 299 298 298 297 297 297 297 296 295 295 294 292 292 291 289 288 288 287 286 286 285 285 284 284 284
316 314 312 308 305 303 302 301 301 302 300 299 298 299 299 300 300 299 299 299 298 298 297 297 297 296 296 295 294 292 291 290 289 288 287 286 286 286 285 285 284 285 285
311 309 306 304 303 301 301 301 300 299 299 298 298 298 299 299 299 298 298 297 297 297 297 297 296 296 296 295 293 292 291 290 289 288 287 286 286 286 285 285 285 285 285
306 303 302 301 300 300 300 299 298 298 298 298 297 298 297 297 297 297 298 297 297 296 296 296 296 296 295 295 294 292 291 289 287 287 286 286 286 285 285 285 285 285 284
302 300 299 299 298 298 298 298 298 298 298 297 296 297 296 296 297 297 297 296 295 295 295 295 295 295 294 295 295 292 290 288 288 287 286 285 285 285 286 285 285 284 284
299 299 298 298 298 298 297 297 297 297 296 297 296 295 296 296 295 294 294 293 293 293 293 294 294 294 294 294 294 292 290 288 287 286 285 284 285 286 285 285 284 284 284
300 300 299 299 299 298 298 297 297 296 295 294 293 293 293 292 292 291 291 290 290 291 292 292 292 293 294 293 292 291 288 287 285 285 285 285 285 286 285 284 283 284 284
300 299 299 299 298 298 298 297 294 292 292 291 290 289 288 287 287 287 286 285 285 286 288 289 290 291 292 292 291 290 289 286 285 284 284 285 285 285 283 283 283 283 283

GFSMA_925_thetae_039.txt.gz
Theta_e
319 319 319 318 317 316 316 317 318 313 313 311 310 308 307 308 311 310 308 304 307 319 318 317 315 313 311 311 309 307 305 305 305 304 304 303 303 304 304 303 302 302 302
320 321 322 322 319 319 318 319 316 315 313 311 309 308 307 307 308 310 309 307 305 317 317 317 315 313 310 308 307 305 304 304 303 303 303 303 303 303 303 303 303 302 302
324 325 325 323 322 321 320 319 316 315 313 312 309 307 307 307 307 307 309 306 305 309 314 315 313 311 309 306 305 303 302 301 301 301 301 301 301 300 300 300 301 301 301
324 324 324 323 322 321 321 319 315 314 312 311 309 308 307 307 307 306 307 308 306 308 311 309 309 308 307 305 302 300 300 300 300 300 299 299 299 299 299 299 298 298 298
322 323 323 323 322 321 319 318 315 314 313 311 308 307 307 307 307 306 305 306 308 304 304 303 301 300 298 298 298 298 298 298 298 298 298 298 298 298 297 297 297 297 297
325 324 323 324 322 321 320 318 316 315 313 311 309 309 308 308 307 306 305 304 303 304 302 301 300 300 299 297 296 296 297 297 296 296 297 297 297 296 296 295 295 295 296
324 326 324 325 323 322 320 318 316 315 311 311 309 308 308 308 307 307 306 305 304 302 302 301 300 299 299 297 296 297 297 295 295 296 295 295 295 294 294 294 294 294 294
325 325 325 325 323 322 320 318 317 313 312 309 308 310 308 309 308 307 306 305 304 303 302 301 300 300 298 297 296 296 297 295 296 294 293 294 293 293 293 293 293 293 293
326 324 326 325 323 322 320 319 316 315 312 310 308 310 308 308 307 308 307 306 304 302 301 301 301 299 299 298 297 296 296 295 295 294 293 292 293 292 292 292 292 292 292
324 323 326 325 324 322 320 320 316 314 311 309 309 309 310 309 305 305 306 306 304 303 302 302 301 299 299 298 297 296 296 295 294 293 292 291 292 291 291 291 291 291 291
325 327 325 324 324 321 321 319 315 312 310 309 310 310 309 310 309 306 304 304 305 303 302 302 302 301 299 298 297 296 296 295 294 293 292 291 291 291 290 290 290 290 290
327 327 326 324 323 322 320 317 316 314 313 312 309 309 309 309 308 306 303 302 302 303 304 303 302 301 299 299 298 297 296 295 294 292 291 290 290 290 289 289 289 289 289
327 326 327 325 324 322 319 318 316 314 312 309 308 308 309 309 308 307 304 301 299 300 300 300 300 301 299 298 297 296 296 295 293 292 291 290 289 289 289 288 287 288 288
326 327 326 326 322 321 320 319 318 314 310 308 308 307 307 309 306 303 302 301 297 298 299 299 299 299 298 297 296 296 296 294 292 292 291 290 289 288 288 287 287 287 287
323 325 326 324 322 319 318 317 316 313 308 307 306 305 307 307 304 303 303 303 300 296 295 299 298 298 297 296 296 296 295 293 292 291 291 290 289 288 288 287 287 286 286
325 325 322 320 318 316 316 316 313 309 306 304 305 306 305 304 303 302 302 301 300 299 295 298 298 297 297 296 295 294 294 293 292 291 291 290 289 287 286 286 286 286 286
326 323 319 318 316 315 315 311 308 306 304 304 304 303 302 302 301 302 301 302 300 298 296 296 296 296 296 296 295 294 293 293 292 292 291 290 289 288 287 286 285 284 284
322 321 320 318 315 313 311 308 306 304 303 303 303 302 301 301 300 300 301 301 300 300 297 296 297 297 296 296 296 295 294 293 292 292 291 290 289 287 286 286 285 285 285
321 318 316 313 311 310 307 305 305 304 302 302 302 301 301 300 299 299 301 300 299 299 298 297 296 297 297 297 296 296 295 293 292 292 291 289 288 287 286 286 286 285 285
318 316 313 311 310 308 306 305 303 301 301 302 301 300 299 299 299 299 299 298 298 298 298 298 297 297 296 296 296 295 294 294 293 292 290 289 288 286 286 286 285 285 284
315 315 314 310 308 306 304 303 301 301 301 300 300 299 298 298 298 298 297 297 297 296 296 297 296 296 296 295 295 295 294 294 293 291 289 288 287 286 286 286 285 285 285
310 309 306 306 305 304 302 301 301 301 300 298 298 298 297 297 296 296 296 297 297 297 296 295 294 294 294 294 294 294 293 291 290 290 288 288 286 286 286 286 285 285 285
305 303 302 302 301 301 301 300 300 299 298 298 298 297 297 296 295 294 294 292 292 292 292 291 292 292 292 292 293 293 292 292 291 290 288 287 287 286 285 285 285 285 285
301 300 299 299 299 298 298 298 298 297 297 297 296 295 294 292 291 289 289 289 289 289 288 287 288 289 291 291 291 291 292 292 290 289 288 286 287 285 285 284 285 285 284
299 298 298 298 298 297 297 297 297 297 296 294 292 292 290 288 286 286 284 283 281 280 281 282 283 283 282 282 283 288 291 289 289 287 287 287 286 285 284 285 285 284 283
299 298 298 298 298 298 297 297 296 293 292 291 289 287 284 282 282 282 281 281 281 283 283 284 284 285 285 285 285 286 289 290 289 285 286 285 285 284 284 284 284 283 283

GFSMA_925_thetae_042.txt.gz
Theta_e
316 316 317 316 315 314 316 317 316 313 311 309 308 308 308 310 310 308 307 314 318 319 319 317 315 312 312 311 308 307 306 306 305 304 304 304 305 305 304 304 303 303 302
317 317 318 317 316 315 316 318 316 313 311 309 308 307 307 307 308 309 306 305 310 318 318 318 316 313 311 310 307 305 305 304 303 303 303 303 302 302 301 302 302 301 301
318 318 319 318 317 317 318 318 315 314 313 310 308 307 307 307 307 308 308 307 306 309 315 316 315 313 311 308 306 304 303 302 302 302 301 300 300 300 300 299 299 299 299
322 322 324 322 320 321 319 319 316 315 314 311 309 307 307 307 307 306 307 306 306 308 312 313 312 311 309 307 305 303 301 301 300 300 299 299 299 299 299 298 298 298 298
324 323 324 323 323 321 320 320 318 314 312 311 309 308 307 307 306 307 306 306 306 307 309 310 305 305 303 305 302 300 300 299 299 298 298 299 298 297 297 296 296 296 296
323 322 323 323 322 321 320 318 315 314 313 312 310 308 307 307 307 306 306 305 305 306 304 304 302 300 299 299 300 299 299 299 298 297 298 297 296 295 295 295 295 295 295
321 323 323 323 324 322 320 319 317 315 314 312 308 308 307 307 307 307 306 304 304 303 303 303 301 301 300 299 298 298 299 298 297 297 296 294 294 294 294 294 294 294 294
321 325 325 325 324 322 321 320 319 315 313 311 309 308 306 308 307 307 306 304 304 304 303 302 301 301 300 299 298 298 299 299 297 297 295 294 294 294 293 293 293 293 293
324 325 325 325 324 324 321 321 319 316 313 309 309 309 306 307 306 307 306 306 305 304 303 302 301 300 300 299 298 297 297 297 298 298 296 294 294 294 293 293 293 293 293
322 324 325 325 325 324 321 321 319 317 316 311 308 309 310 310 306 305 307 307 307 305 303 302 301 301 300 299 298 297 297 296 296 298 296 294 293 293 293 292 292 292 292
319 324 326 324 325 324 323 321 320 318 315 312 314 309 309 308 307 306 306 306 306 306 304 303 302 301 301 300 298 298 297 296 296 295 296 294 293 293 292 292 292 291 291
321 324 325 323 324 325 323 322 320 317 314 314 313 309 309 309 309 308 305 304 304 306 305 304 303 302 301 300 299 298 297 296 296 295 295 294 293 292 292 292 291 290 290
321 323 325 324 325 324 324 322 320 316 314 315 311 311 310 309 310 309 307 306 302 303 300 301 301 302 302 301 300 299 298 297 296 295 294 293 292 292 292 291 290 289 289
322 324 325 326 325 324 323 321 320 316 315 315 312 312 310 309 309 308 307 304 299 298 299 301 300 300 299 300 300 299 298 297 296 295 294 293 292 291 290 290 290 288 288
320 326 326 325 325 324 323 320 318 316 315 314 313 310 308 308 307 308 305 301 301 298 298 299 299 300 299 298 297 297 297 296 296 295 293 293 292 291 290 290 289 288 288
325 326 325 323 322 324 320 315 315 314 314 313 309 307 306 306 306 304 302 301 301 300 297 298 299 298 298 298 297 296 296 296 296 295 294 293 291 290 290 288 287 287 287
324 325 323 323 321 321 316 316 315 315 313 310 306 305 305 305 303 302 302 302 301 301 298 298 297 299 297 297 296 296 296 295 295 294 293 292 291 291 290 289 288 286 286
324 318 321 322 320 317 315 314 314 312 310 306 304 304 304 302 301 302 301 300 300 300 299 297 297 296 296 296 296 296 295 295 295 294 293 292 291 291 290 289 287 286 286
324 320 317 318 318 316 314 313 310 309 307 305 304 303 301 301 301 300 299 300 299 298 298 297 296 297 297 297 297 297 297 296 295 295 294 291 291 291 291 289 287 286 286
322 320 319 318 317 315 312 310 307 306 304 303 303 302 301 300 299 299 299 298 297 297 296 296 296 296 297 296 296 296 295 295 295 295 295 295 293 292 290 288 287 286 286
321 319 318 315 313 311 309 307 306 304 303 302 302 301 300 298 299 297 297 296 295 295 295 295 295 294 295 295 294 294 294 294 294 294 293 293 292 292 290 288 286 286 285
317 314 312 311 308 307 307 305 304 302 301 301 300 299 298 298 297 296 295 292 292 291 290 290 290 290 291 291 292 292 292 292 292 292 292 292 292 289 289 287 287 287 285
311 310 309 307 306 305 304 302 302 301 301 300 298 297 297 296 295 294 292 291 290 289 285 283 284 285 286 286 287 288 289 290 290 291 291 289 289 287 287 287 287 287 285
308 305 303 303 303 302 301 301 301 300 298 297 296 296 295 293 291 289 288 286 284 281 281 282 283 283 284 284 284 284 284 284 285 287 290 289 290 288 288 287 288 285 285
301 300 300 300 300 299 299 299 298 297 296 295 293 291 291 289 286 283 282 280 280 281 282 282 281 281 282 283 284 284 284 284 284 286 288 288 288 287 286 287 288 284 285
299 299 298 298 298 297 297 296 296 296 295 291 289 287 285 282 280 279 280 281 282 282 281 279 279 280 281 282 283 284 284 285 285 286 287 287 287 285 284 286 285 284 284

GFSMA_925_thetae_045.txt.gz
Theta_e
316 315 316 315 314 315 316 316 314 312 309 309 310 310 310 310 309 308 309 315 318 319 319 317 315 314 312 310 308 306 306 306 305 304 304 305 304 303 303 303 302 302 302
316 316 316 315 314 315 317 317 315 311 308 308 308 308 308 308 308 308 306 313 316 317 319 318 316 313 312 310 308 306 306 304 303 303 303 302 301 301 301 301 300 300 300
316 317 316 315 315 315 317 317 313 312 310 308 307 307 307 307 307 307 308 307 313 317 317 317 316 314 312 310 307 306 304 302 302 302 301 300 300 300 300 299 299 299 299
316 317 317 317 316 316 317 318 314 313 312 309 307 307 307 307 307 307 307 307 309 311 313 315 315 314 312 309 307 305 302 302 301 301 300 300 299 299 298 297 297 297 297
318 319 321 319 318 318 318 319 316 314 313 311 308 307 306 307 307 307 307 306 307 307 308 310 311 310 309 308 307 304 301 301 301 299 299 299 298 297 296 295 296 296 296
323 323 323 323 321 320 320 319 317 315 314 312 309 307 307 306 306 306 306 306 306 306 308 308 310 306 304 302 304 302 301 301 300 299 299 298 294 294 293 294 295 295 295
323 324 324 324 323 322 321 320 319 316 313 311 308 307 306 306 306 306 306 306 306 305 305 306 304 303 301 300 300 302 301 301 301 299 299 297 295 294 294 294 294 294 295
319 321 322 322 323 322 321 320 318 315 313 311 309 306 304 306 306 306 306 306 306 305 304 304 303 303 301 301 300 300 301 301 301 300 299 298 296 294 295 294 294 294 294
315 318 321 322 323 323 323 320 318 316 315 312 310 310 305 307 307 308 307 305 304 305 304 303 304 302 302 301 300 300 298 299 301 300 300 298 297 296 295 295 294 294 294
315 319 322 323 324 324 323 322 319 318 317 313 309 309 310 310 307 308 307 307 305 304 304 304 304 302 301 301 300 299 298 298 297 299 300 300 298 297 296 295 294 294 293
315 318 320 325 325 325 324 324 320 318 317 314 311 308 309 309 308 307 307 306 306 307 306 305 304 303 302 301 300 300 299 298 297 297 299 300 299 298 297 295 294 294 293
316 318 319 320 322 324 325 324 323 320 319 315 315 313 312 310 308 307 304 304 305 306 307 308 307 305 302 301 300 300 300 298 297 297 297 299 299 298 297 296 295 294 293
318 318 319 319 321 324 324 323 323 321 320 318 316 314 313 313 310 309 308 305 305 306 305 305 303 302 302 302 301 301 300 298 298 297 297 296 297 298 297 296 295 294 293
319 319 320 319 320 324 324 323 322 321 320 318 315 313 314 312 309 310 309 306 302 300 299 303 301 301 301 301 300 299 300 300 298 297 297 296 296 295 295 295 294 293 292
321 321 322 322 322 323 319 320 323 319 320 319 315 312 313 311 310 309 308 306 301 300 299 301 301 301 300 299 299 299 298 297 298 298 297 296 296 295 294 293 293 293 292
321 320 322 324 324 322 324 324 322 321 318 316 313 312 312 311 309 308 307 305 302 300 299 300 301 301 300 299 298 297 297 297 296 296 296 296 296 295 294 292 291 291 292
322 322 322 324 324 323 323 320 319 318 315 312 311 311 309 308 307 305 304 302 301 301 299 300 299 300 300 299 298 297 296 295 295 295 295 295 295 295 294 292 291 290 289
324 323 323 323 318 317 319 319 318 314 312 311 311 309 307 305 305 303 302 301 301 300 299 297 297 297 297 298 298 297 297 297 297 297 296 295 293 293 293 291 291 290 289
323 324 323 324 320 315 317 317 314 313 313 312 309 307 305 304 302 301 301 300 299 299 298 296 295 296 296 296 296 296 296 296 295 295 295 295 296 296 295 294 294 292 291
323 324 322 319 318 315 316 313 313 312 310 309 307 305 304 303 301 300 299 298 297 296 296 295 295 295 294 294 294 294 294 293 293 293 293 293 294 293 294 294 293 293 291
323 323 322 319 318 316 314 312 312 310 307 305 303 303 302 300 298 297 297 297 295 294 293 291 291 290 290 290 290 290 290 290 290 291 291 292 292 292 292 292 292 292 291
322 321 318 317 313 313 314 311 309 306 304 303 302 301 299 298 297 297 296 294 294 291 289 287 285 285 284 284 284 284 285 286 286 286 289 289 289 289 290 291 291 291 290
316 315 314 313 312 311 309 308 306 305 303 302 302 299 297 296 295 294 292 292 291 288 285 281 281 282 282 282 283 283 283 283 284 284 284 284 285 286 287 289 289 289 288
314 313 311 311 310 307 306 305 303 302 301 300 298 297 296 294 292 292 292 290 287 283 281 282 282 282 282 282 282 283 283 283 283 283 284 284 284 285 286 287 288 286 286
310 308 308 307 305 304 303 302 301 300 297 295 295 294 292 289 290 291 287 282 280 281 281 281 280 279 279 279 279 281 282 283 283 283 283 284 284 285 286 287 287 286 286
304 304 302 301 300 300 300 299 299 297 295 294 290 288 285 289 287 281 280 281 281 281 280 279 277 277 277 277 278 280 279 278 278 279 281 282 283 285 286 286 286 285 286

GFSMA_925_thetae_048.txt.gz
Theta_e
314 314 313 312 312 313 314 312 311 310 311 313 312 311 312 311 311 312 315 317 318 319 318 316 315 313 312 310 308 307 307 306 305 305 305 304 303 303 302 302 301 301 301
315 314 313 313 313 315 315 314 313 311 310 311 311 311 310 310 309 309 310 314 317 317 319 318 316 315 313 310 308 307 306 305 304 304 303 302 302 301 301 300 300 300 300
315 315 314 314 314 316 316 315 312 309 308 309 309 309 308 308 308 307 307 309 314 316 318 318 316 314 314 311 308 307 305 303 303 303 302 301 301 300 299 299 298 298 298
315 315 315 314 314 317 317 317 312 310 308 307 307 307 308 307 307 307 307 307 310 314 317 317 316 314 313 311 308 307 304 303 302 302 301 301 300 297 295 296 297 297 297
316 316 316 315 315 315 317 317 313 311 309 308 307 307 307 307 307 307 307 307 307 311 312 315 316 314 312 311 309 306 304 303 302 301 300 300 297 294 294 294 295 296 296
316 317 317 316 316 314 315 317 315 313 312 310 308 307 306 307 307 307 307 307 307 307 307 309 312 312 310 307 307 306 304 303 302 301 300 300 298 295 294 292 294 295 296
317 318 319 320 317 316 317 318 317 315 314 312 308 306 306 306 306 306 306 306 307 307 307 308 308 309 308 304 301 304 304 304 303 302 301 300 298 296 294 293 295 295 295
322 322 322 322 323 321 321 321 319 317 314 312 309 306 304 306 306 306 306 306 306 306 307 308 308 307 305 303 301 301 304 304 303 303 302 301 299 298 296 296 296 295 295
320 319 320 322 322 323 322 322 320 318 317 312 310 310 306 307 306 307 306 306 306 306 306 306 306 305 304 303 301 300 300 301 302 303 303 301 301 299 298 297 296 295 295
316 316 316 319 321 321 322 322 321 319 317 314 310 310 310 309 307 308 307 307 306 306 305 305 305 304 304 304 302 301 300 300 299 300 302 302 302 301 299 298 297 296 296
314 314 314 316 319 322 322 323 323 320 316 314 313 311 308 309 309 308 308 306 306 307 306 305 304 304 304 304 303 301 301 300 299 298 299 302 302 302 301 300 299 297 296
313 313 313 314 317 319 323 324 324 323 320 316 315 314 313 310 308 307 306 306 306 308 307 307 306 306 307 306 304 302 301 300 299 298 298 298 301 302 302 301 300 299 297
314 313 315 315 316 318 319 322 323 323 321 319 318 315 313 312 312 311 309 307 306 306 306 307 307 307 305 302 302 302 301 300 300 299 298 297 297 298 301 301 300 299 298
315 315 316 316 316 317 319 320 322 322 321 320 319 319 316 314 312 311 311 308 303 303 303 306 306 303 300 301 300 300 299 299 299 299 299 298 297 297 297 298 299 299 298
316 316 316 316 316 318 321 321 322 321 318 319 321 320 319 314 312 311 310 309 308 304 301 301 301 301 301 301 299 299 298 297 297 297 297 297 297 297 297 297 297 297 297
315 316 315 315 319 321 321 322 322 320 318 318 317 316 316 312 311 310 309 309 308 304 301 301 300 302 302 302 301 300 300 298 297 297 296 295 295 295 296 296 296 296 296
314 315 317 319 321 321 322 322 322 320 319 316 316 315 312 310 310 310 308 307 304 302 300 300 300 300 300 300 299 298 298 297 297 297 297 297 296 296 296 294 294 295 295
318 317 319 320 321 321 322 322 321 319 317 315 316 313 310 310 309 308 306 304 302 301 300 298 298 297 298 298 297 296 296 296 295 295 294 294 293 293 294 294 295 296 295
318 318 319 320 321 322 321 319 317 316 316 315 311 309 309 308 306 305 303 302 301 300 298 296 296 296 296 296 294 294 293 293 292 292 292 292 292 292 292 292 293 293 294
320 320 321 321 321 321 322 321 318 314 313 311 310 310 309 307 306 303 301 300 299 298 296 295 295 294 293 292 290 289 288 287 285 285 285 285 285 285 288 290 291 292 292
322 322 322 321 321 320 320 319 316 314 311 309 308 307 306 305 303 301 300 298 296 295 294 293 291 289 288 287 284 284 283 283 283 283 284 284 285 287 287 286 286 285 287
322 322 322 322 320 319 318 316 316 312 309 308 306 303 302 301 299 298 297 296 295 293 291 289 287 284 283 282 282 282 282 282 283 283 283 283 283 283 283 284 284 285 286
322 322 322 320 317 316 316 314 311 310 308 305 303 301 299 298 297 296 294 292 291 290 288 284 282 281 281 282 281 281 281 281 281 282 282 282 282 283 283 284 284 285 285
319 319 317 314 313 312 309 308 307 305 304 302 300 299 297 295 293 292 290 290 287 284 282 281 282 281 281 280 280 281 281 281 281 282 282 283 282 282 283 283 284 284 285
311 310 309 309 309 307 305 304 304 302 300 297 296 295 294 291 289 290 288 289 285 281 281 281 280 279 278 277 277 279 280 280 278 278 278 279 280 281 281 280 282 285 286
305 304 303 303 303 301 301 301 301 299 296 293 291 289 289 288 286 284 289 282 281 281 280 279 278 277 276 276 276 276 277 276 277 277 278 278 278 278 280 281 284 285 285

GFSMA_925_thetae_051.txt.gz
Theta_e
313 313 312 312 312 313 314 315 316 315 313 312 311 312 315 317 318 318 318 318 318 318 317 316 314 313 311 310 309 309 307 307 307 306 305 304 304 303 302 302 302 301 301
312 311 312 312 312 311 312 313 313 313 314 312 311 313 312 314 316 318 318 319 318 318 319 317 316 314 312 310 308 308 307 306 306 305 304 303 303 302 301 300 300 300 300
312 311 311 312 313 313 312 311 311 311 311 313 313 312 312 311 310 311 315 318 318 318 318 318 317 316 314 311 309 308 306 305 305 304 303 302 301 298 296 297 298 298 298
313 312 312 312 315 314 313 312 310 309 311 311 310 310 309 308 308 308 309 315 316 316 318 318 317 315 315 313 309 308 306 304 304 303 302 302 299 296 294 294 294 296 297
314 313 313 313 315 316 314 313 310 308 308 309 308 308 308 308 307 307 307 308 310 313 316 317 317 316 314 313 310 309 306 305 304 303 302 301 299 295 295 293 292 293 295
315 314 314 313 314 316 315 314 311 310 309 308 307 307 307 307 307 307 308 308 308 310 312 315 316 315 314 311 311 309 307 306 304 304 303 302 300 296 295 294 293 293 295
316 315 315 314 314 314 316 316 313 312 310 308 308 307 307 306 307 307 307 307 307 307 308 309 313 314 313 311 308 309 308 306 306 305 303 303 302 299 297 295 294 295 295
317 316 316 316 315 314 314 316 316 314 314 311 311 310 313 310 306 307 306 306 307 307 310 307 310 309 311 310 307 304 306 306 306 306 305 303 303 301 299 298 297 297 296
316 316 317 319 319 318 317 317 318 317 316 313 312 315 314 317 312 309 307 306 306 307 308 308 307 308 308 308 307 304 302 302 305 306 306 305 304 303 301 300 299 298 297
319 320 321 321 321 321 321 322 321 320 318 317 311 311 312 313 316 314 309 308 306 306 306 306 307 307 307 307 305 304 303 301 301 302 304 305 305 304 303 302 301 300 299
319 320 318 319 319 319 321 321 321 321 320 318 315 313 311 309 309 310 316 309 307 307 307 307 307 306 306 305 305 304 304 303 301 300 300 302 303 304 304 304 303 302 301
316 315 315 315 315 315 318 321 322 321 321 319 316 315 313 312 309 308 309 311 308 310 309 309 308 306 305 304 305 306 306 303 302 300 299 299 301 302 303 304 304 303 303
314 313 313 314 314 314 314 317 320 322 322 322 319 316 314 313 313 312 311 310 310 308 308 309 308 307 306 306 307 303 302 302 301 300 299 299 299 299 299 300 301 302 303
316 315 314 314 314 314 315 316 318 319 320 320 319 318 319 318 316 314 312 310 307 309 305 307 307 306 307 305 301 301 301 299 299 299 299 298 299 299 298 297 298 299 300
316 316 316 315 315 315 316 317 317 319 320 321 322 319 318 318 318 315 312 311 312 310 307 305 306 305 301 300 301 301 301 302 301 298 297 296 296 296 296 296 297 298 299
316 316 315 315 316 316 316 317 319 320 321 321 320 317 316 316 316 316 313 310 310 310 310 305 303 301 300 302 302 300 300 299 299 299 298 297 297 296 296 296 296 295 295
315 314 314 316 316 317 317 318 319 320 321 320 319 318 318 315 317 313 310 309 308 309 306 302 302 301 302 301 300 299 298 298 297 297 297 297 296 296 296 295 295 295 295
314 315 316 316 317 318 317 317 319 321 321 320 319 319 317 315 313 311 309 308 308 306 303 301 300 300 299 299 298 297 296 295 296 295 295 294 293 292 292 291 291 291 291
316 316 317 317 317 317 318 318 320 320 319 320 319 315 315 314 310 308 308 306 305 303 301 300 297 297 297 296 296 295 294 294 293 291 289 287 286 286 286 285 285 285 286
316 317 317 318 318 318 319 319 318 319 319 317 314 314 313 310 308 308 306 304 302 300 298 297 296 295 295 295 292 292 291 289 287 285 285 285 284 285 286 286 285 283 284
317 318 318 319 320 320 319 320 319 318 317 316 313 313 309 308 307 307 305 302 300 298 295 294 293 291 292 291 290 288 286 285 285 285 286 286 285 285 285 285 284 284 283
318 319 319 319 320 319 320 321 320 317 316 313 310 307 306 305 304 303 302 300 298 296 293 292 291 291 291 287 285 285 284 284 285 285 284 284 284 285 285 285 284 283 283
320 321 321 321 321 320 321 321 317 315 313 308 307 304 302 301 301 299 297 296 294 292 292 291 288 287 285 284 283 283 284 284 284 284 283 284 284 284 284 283 283 283 283
321 321 321 321 320 319 318 314 311 310 307 305 304 302 301 298 297 296 294 291 289 288 286 284 284 283 283 282 282 281 281 282 282 283 282 282 282 281 282 282 281 281 281
320 318 315 314 313 311 310 307 307 304 302 299 298 298 298 295 292 291 290 288 286 284 282 281 281 280 279 278 278 280 281 281 281 281 280 280 281 280 280 281 282 282 283
310 307 306 306 306 304 303 302 304 302 297 294 292 291 291 291 290 290 287 285 283 283 281 280 279 278 278 278 277 278 278 279 279 280 280 279 279 279 280 280 280 280 282

GFSMA_925_thetae_057.txt.gz
Theta_e
326 328 327 326 323 323 322 319 321 320 319 319 320 322 322 322 321 320 318 318 318 317 317 316 315 313 313 312 311 310 310 310 309 308 307 306 305 304 302 302 302 302 302
325 326 326 326 324 323 322 321 321 320 319 319 320 321 321 321 322 321 320 318 317 317 317 316 315 314 313 312 311 310 309 310 308 307 306 305 303 301 300 299 299 299 300
324 325 326 325 323 323 322 321 321 319 317 319 319 320 320 321 321 322 321 319 318 317 317 317 316 315 314 312 311 310 309 309 308 307 306 304 302 299 297 295 295 296 297
322 322 322 321 321 322 321 320 319 318 317 318 319 319 319 320 320 321 321 321 320 319 318 318 317 316 315 314 312 311 309 308 308 307 306 304 300 297 296 295 294 294 294
320 319 318 318 318 319 319 319 319 318 317 317 318 318 318 318 318 318 319 320 320 320 320 318 318 317 316 315 314 312 311 308 308 307 306 306 303 298 297 295 294 294 294
318 317 317 318 317 317 317 318 318 318 317 317 317 316 316 315 315 315 316 317 319 319 320 320 318 318 317 316 315 313 312 310 308 308 307 306 305 302 299 297 296 295 295
318 315 317 318 319 318 318 318 317 317 316 316 315 315 315 315 315 315 315 315 316 317 318 318 320 318 317 316 315 315 313 313 311 309 308 307 306 305 303 300 298 296 296
319 315 317 318 319 319 320 320 319 318 316 315 314 315 317 316 315 316 315 315 315 316 316 318 318 318 318 318 316 315 315 313 313 311 310 309 307 307 305 303 302 301 300
320 318 318 319 319 321 322 322 322 321 320 318 317 318 320 321 319 318 316 316 316 315 315 315 317 317 317 317 317 316 314 312 312 312 311 310 309 308 307 306 305 303 302
322 317 320 321 321 320 322 324 323 323 322 321 321 319 321 323 324 322 319 317 316 316 315 315 314 315 316 316 316 316 315 313 311 309 310 310 310 310 309 308 307 306 305
320 321 320 322 322 322 322 322 323 324 323 323 322 322 321 322 322 323 325 321 318 317 315 313 313 314 316 316 315 315 314 313 312 309 306 305 308 308 309 309 310 309 308
322 321 322 322 323 324 324 323 323 324 324 324 323 324 323 322 322 322 324 323 322 319 317 314 311 314 315 314 314 314 314 314 312 310 307 305 304 305 307 307 307 307 307
322 323 323 322 323 324 324 323 324 324 325 324 322 324 323 323 323 323 323 322 322 321 317 315 314 316 317 315 313 312 313 312 310 308 305 304 304 304 303 304 305 305 305
320 322 323 323 324 325 325 324 322 323 321 323 323 322 324 321 323 323 323 323 323 319 317 317 315 315 315 315 313 311 310 309 307 305 305 303 302 301 301 300 300 300 301
320 320 322 323 323 323 324 324 325 324 323 323 324 324 324 323 322 322 323 322 321 321 318 315 315 313 313 312 312 310 308 305 306 304 302 301 301 301 300 299 298 297 297
320 321 321 322 322 322 323 322 322 322 322 323 323 323 323 323 322 323 323 322 319 319 320 318 316 313 313 313 311 310 305 302 302 302 302 303 303 302 300 299 298 297 297
322 321 321 321 321 321 321 321 321 321 321 322 322 323 323 323 323 323 322 319 317 316 316 316 314 312 310 309 307 305 303 302 303 304 303 302 301 299 299 298 297 297 296
324 323 321 321 321 321 321 322 322 322 322 322 322 322 323 323 323 322 320 318 317 315 315 313 309 307 306 306 302 301 301 303 303 302 302 301 299 298 297 296 295 295 293
325 324 323 323 322 322 322 322 322 322 322 322 322 323 323 323 323 322 319 316 315 314 313 311 305 304 302 301 300 301 301 301 300 301 301 299 298 294 291 289 288 287 286
326 325 324 323 323 323 322 322 322 322 322 322 322 322 322 323 322 320 317 316 314 312 309 307 303 301 300 300 300 300 299 299 300 301 299 295 292 289 288 288 288 288 287
325 324 324 324 324 323 323 322 321 321 321 321 321 322 322 322 322 320 317 314 312 309 305 302 302 298 299 297 297 298 297 297 297 297 295 292 291 291 290 290 289 289 289
325 325 324 324 324 323 322 321 321 322 321 321 322 322 322 322 321 320 317 314 313 308 303 300 300 299 298 297 296 295 295 294 295 293 291 291 291 290 289 288 289 289 288
325 324 324 324 323 323 322 321 321 321 322 323 322 322 320 318 318 316 311 307 304 302 302 300 299 296 295 294 294 293 292 291 291 290 290 290 289 288 288 288 288 286 286
325 324 324 324 324 323 323 322 321 321 321 322 321 319 315 312 309 308 304 300 297 297 297 296 294 291 290 290 290 289 288 288 288 287 287 288 288 287 287 286 287 286 285
326 325 325 325 324 323 322 322 322 320 318 315 313 310 308 305 301 302 300 295 291 290 288 288 289 288 288 287 286 285 285 286 287 287 287 287 287 286 286 286 285 285 284
324 318 319 319 319 319 319 319 318 315 306 301 298 295 296 295 292 293 293 290 287 284 286 286 283 282 281 281 281 280 282 284 284 285 285 285 285 284 284 285 284 284 283

GFSMA_925_thetae_060.txt.gz
Theta_e
326 325 326 321 320 318 318 313 319 318 317 318 322 321 323 321 320 318 318 317 317 318 317 316 315 315 313 312 311 311 311 310 309 308 307 306 304 299 296 299 302 302 303
323 324 327 323 322 320 320 319 322 320 319 320 322 322 322 320 320 319 318 318 317 316 317 317 316 315 314 313 311 311 311 311 309 308 307 304 299 297 297 295 297 297 300
321 326 326 322 323 322 322 320 321 320 320 320 322 322 322 322 320 319 317 317 317 317 316 316 316 315 314 314 312 311 310 311 309 308 307 302 298 297 297 295 294 294 295
324 325 326 325 323 324 323 322 320 319 319 320 321 321 321 321 322 321 319 318 316 317 317 317 316 316 315 314 313 312 310 310 309 309 308 306 302 299 297 296 295 295 295
325 324 325 325 324 324 323 321 319 318 319 320 320 320 320 320 320 321 321 320 318 318 317 317 317 316 315 315 314 313 312 310 310 309 308 307 305 303 301 298 296 295 296
322 323 321 320 321 322 321 320 319 318 318 319 319 319 319 319 319 319 319 321 320 319 319 319 317 317 317 315 315 315 314 312 310 310 309 308 307 305 303 299 297 297 297
321 318 317 318 318 319 318 319 319 319 319 317 318 318 317 316 317 316 317 318 319 319 321 320 320 317 317 317 316 316 315 314 313 311 310 309 308 307 305 303 301 299 297
320 317 317 317 317 319 318 318 318 318 318 317 317 316 315 316 315 316 315 315 315 317 318 319 320 320 319 318 316 315 316 316 315 314 312 311 309 308 308 306 304 303 302
317 317 317 316 317 320 318 318 317 318 317 316 316 316 316 316 316 316 315 316 315 316 317 317 318 320 319 319 319 318 316 315 314 314 314 312 311 310 309 308 307 306 304
317 316 319 316 314 319 321 321 319 320 319 318 315 315 318 321 322 319 317 316 317 316 315 315 316 317 317 317 318 318 317 317 315 313 312 313 312 312 311 310 309 309 308
321 319 318 321 318 314 320 323 323 321 322 323 320 319 318 320 322 322 320 319 317 317 316 315 315 315 315 316 316 317 317 316 316 315 313 310 313 313 312 312 311 311 310
322 321 318 319 322 322 319 322 323 324 323 324 323 323 321 322 322 323 320 321 319 318 317 317 316 315 314 314 316 317 316 316 315 315 313 312 310 308 309 310 310 310 310
321 321 320 319 322 322 322 322 323 323 324 323 323 322 322 322 321 322 322 321 320 321 319 317 316 317 315 315 314 315 315 315 314 313 313 312 311 309 308 306 307 308 308
320 320 321 319 319 323 322 324 323 323 323 324 322 321 322 322 321 321 321 322 319 321 320 318 317 317 316 315 315 316 316 315 314 312 312 311 310 308 305 304 304 303 304
319 322 322 321 320 322 323 324 324 323 322 323 322 322 322 322 321 320 322 323 322 320 320 320 318 318 318 317 315 316 315 315 314 312 312 310 307 305 304 301 300 300 299
318 319 321 322 322 322 323 325 325 322 323 323 323 322 323 322 322 321 321 322 322 321 321 320 320 318 316 315 314 313 314 314 314 311 309 305 305 301 301 303 302 301 300
321 320 320 321 322 324 324 325 324 323 323 323 323 322 324 323 322 322 323 322 322 322 320 319 319 317 316 315 314 312 312 311 311 308 306 305 302 303 303 301 300 299 298
322 321 320 321 321 321 322 323 323 323 323 323 323 323 322 322 322 322 323 323 323 322 320 317 316 314 313 313 312 312 310 307 306 303 303 302 304 303 301 300 299 298 297
324 323 322 321 321 322 322 322 322 322 322 322 321 321 321 322 322 322 322 322 322 321 319 317 316 311 310 309 305 305 305 304 302 302 302 302 301 301 299 298 295 292 291
325 325 325 323 322 322 322 322 322 322 322 322 322 322 322 322 322 322 322 322 321 319 317 315 313 307 306 304 303 303 300 300 301 301 301 302 301 299 294 292 290 289 289
327 326 326 325 325 324 322 322 322 322 322 322 322 322 322 322 322 322 322 321 320 317 315 311 309 302 302 300 300 299 299 300 301 300 300 298 295 293 292 291 290 290 289
327 328 327 326 326 325 324 324 323 323 323 322 322 322 322 322 322 322 322 322 321 318 313 308 307 303 302 299 299 299 299 297 294 296 295 295 294 292 291 290 290 289 289
328 327 327 327 326 326 325 325 324 323 323 323 322 322 321 321 321 322 322 321 320 314 310 307 304 299 297 297 299 297 295 293 292 293 291 290 290 290 290 289 288 288 287
327 327 326 326 325 325 325 324 324 323 322 321 322 323 322 321 322 321 319 311 303 300 301 302 300 297 296 294 293 291 290 289 289 289 290 287 288 287 287 288 287 287 287
327 327 326 326 325 325 324 324 323 323 320 320 319 318 319 317 312 310 308 298 291 289 290 292 291 291 290 290 290 288 286 286 287 287 287 286 287 286 286 286 286 286 285
327 327 323 320 320 321 320 323 323 320 314 307 302 300 300 300 296 295 295 290 286 285 287 287 284 282 283 283 283 283 283 283 284 284 284 284 284 284 283 284 284 284 283

GFSMA_925_thetae_063.txt.gz
Theta_e
330 328 323 319 315 315 314 312 311 314 319 321 321 321 320 319 318 317 318 317 318 318 318 317 316 315 313 313 313 312 311 310 310 309 308 306 303 301 303 304 304 304 304
328 327 321 316 315 312 309 316 316 314 318 319 321 322 321 319 318 316 317 317 317 317 317 317 317 315 314 312 312 313 311 311 310 309 307 302 300 299 300 299 300 301 301
326 326 320 316 316 312 312 319 320 317 318 321 321 322 320 320 318 316 317 317 316 317 317 317 317 316 315 314 312 312 312 311 310 309 307 306 303 300 298 296 296 296 295
321 325 322 317 319 315 315 320 321 320 319 321 322 322 321 320 319 316 316 316 316 315 316 316 316 316 316 315 313 312 312 312 310 310 309 306 301 298 298 297 296 296 295
322 322 325 318 322 320 319 319 320 319 320 321 321 321 321 320 320 319 317 316 316 316 316 316 316 315 315 315 315 314 313 311 311 310 309 308 305 300 299 298 297 296 297
321 325 325 320 323 322 322 321 320 319 320 320 320 320 321 321 321 320 320 318 317 316 316 316 317 316 316 315 315 315 315 313 312 311 311 310 308 305 301 299 298 298 297
324 325 324 323 323 324 323 321 319 318 319 320 319 319 319 320 320 320 320 320 320 319 318 318 317 317 317 316 316 316 316 316 315 313 312 311 310 309 307 305 301 300 300
321 322 322 322 321 323 321 319 319 319 319 319 318 318 313 315 318 318 318 319 320 320 320 319 319 319 318 318 317 316 317 317 317 316 313 312 311 310 309 308 305 304 303
319 320 318 321 320 320 319 319 319 319 318 318 318 316 312 313 313 315 316 316 316 318 319 320 319 319 320 319 318 317 316 316 316 316 316 314 312 311 311 310 309 307 306
320 317 318 318 318 318 318 318 318 317 317 317 317 316 315 317 316 317 315 315 315 315 314 316 319 319 319 319 318 318 318 318 317 316 315 315 314 312 312 312 311 310 309
320 319 318 316 316 317 317 319 316 315 317 317 317 315 315 316 319 318 317 316 315 316 315 315 317 317 317 317 318 318 317 317 317 317 316 315 316 314 313 312 312 311 311
318 317 315 316 315 315 319 322 318 318 318 319 320 316 315 316 319 320 317 317 317 317 316 317 316 315 315 316 317 316 316 316 317 317 317 316 314 314 315 313 313 313 313
320 317 316 318 319 317 315 320 322 322 320 320 321 322 320 319 320 321 321 319 318 319 319 317 317 317 316 315 315 315 315 316 316 316 316 316 315 314 313 313 313 312 312
320 320 318 316 318 320 321 319 317 322 322 322 322 322 322 322 322 320 321 320 316 318 320 320 319 317 317 317 316 315 314 313 315 315 315 314 314 314 314 312 311 310 308
318 320 320 320 317 317 321 322 322 321 323 323 323 322 322 322 320 316 320 321 319 318 315 320 320 321 320 318 317 317 317 315 313 313 314 314 314 312 311 311 309 307 305
316 317 319 320 321 319 317 322 323 322 322 322 322 322 322 322 321 319 320 320 320 320 319 319 319 320 320 320 319 319 318 317 316 315 316 315 314 312 310 309 306 305 302
316 316 317 320 321 321 320 319 322 322 322 323 322 322 322 321 321 321 321 320 320 320 319 320 320 320 319 319 319 318 317 316 315 314 314 314 313 310 309 305 304 301 304
318 317 316 318 320 321 321 321 321 323 323 323 322 322 322 321 322 322 321 321 321 321 320 320 319 319 319 319 318 317 316 315 313 312 312 313 311 308 304 303 302 302 300
320 319 318 317 318 319 320 321 322 322 323 323 323 322 322 321 321 322 322 322 321 321 321 321 320 319 318 317 314 314 314 312 311 311 309 308 306 303 302 302 301 300 298
321 321 320 320 319 319 319 319 320 322 323 323 322 322 322 322 321 321 321 321 321 321 321 320 319 317 315 314 310 307 305 308 307 305 303 302 302 302 302 301 300 296 291
322 322 322 321 321 320 320 320 320 320 320 321 321 321 321 320 320 320 320 320 320 320 320 320 319 314 308 303 304 306 304 303 302 302 300 301 301 301 301 299 294 291 291
322 323 322 323 323 322 321 320 320 320 320 320 320 320 320 320 321 321 321 321 321 320 320 319 317 315 309 307 305 303 301 299 297 299 300 300 296 295 293 292 291 291 290
325 324 324 324 324 324 324 323 322 321 321 320 320 320 320 321 321 321 321 321 321 321 320 319 318 315 307 302 300 299 299 297 294 292 293 292 291 291 290 290 291 289 288
326 326 325 325 326 326 325 325 324 324 321 321 321 321 321 321 321 321 320 317 310 307 305 306 304 296 297 297 297 295 293 289 290 289 289 289 290 290 290 289 287 288 287
327 327 327 326 326 326 326 326 325 325 322 321 320 319 320 320 321 320 317 304 293 289 290 291 291 289 289 290 290 290 287 288 287 286 286 286 286 285 286 286 286 285 286
326 326 326 325 324 324 324 324 324 322 318 313 308 308 308 312 310 308 305 293 286 284 287 288 289 289 288 288 288 287 285 285 285 284 282 283 283 283 282 284 284 283 283

GFSMA_925_thetae_066.txt.gz
Theta_e
329 328 327 323 319 320 320 320 318 318 319 319 321 320 319 317 316 317 317 318 318 319 318 317 316 315 315 315 314 313 312 312 311 310 309 308 308 306 307 306 306 306 306
329 326 324 320 319 317 317 318 314 317 319 320 321 320 319 317 317 317 318 317 318 318 318 318 317 316 315 314 314 312 312 311 310 310 308 307 304 302 301 299 302 302 302
328 325 322 317 314 317 315 313 311 318 321 318 321 319 319 317 317 317 317 317 317 317 317 317 317 316 315 314 314 313 312 311 310 310 308 302 299 298 297 296 296 296 297
328 326 320 316 314 311 309 311 314 319 319 318 321 320 319 318 317 317 317 316 316 316 316 316 317 317 316 315 313 313 313 312 311 310 308 301 300 299 298 297 296 296 296
328 325 318 314 311 308 315 316 315 316 318 320 321 320 319 318 317 316 316 316 315 315 315 315 314 314 315 316 315 314 314 313 313 311 306 304 305 300 299 298 297 297 297
327 325 318 315 311 311 318 319 319 318 318 321 321 320 320 319 318 316 316 316 316 315 315 315 316 315 315 314 315 316 315 314 313 313 310 310 308 304 301 300 299 299 298
324 325 320 316 315 314 316 320 320 320 320 320 321 318 319 319 319 319 318 317 316 316 316 316 316 316 316 316 315 315 317 317 316 314 314 313 311 308 308 303 301 300 300
322 323 324 319 321 318 319 318 320 318 319 320 319 318 315 316 319 319 319 319 319 318 317 317 316 316 317 317 316 316 317 318 318 317 315 314 313 312 311 307 305 303 302
321 324 324 323 322 323 321 322 320 318 318 319 319 318 313 315 313 318 318 319 319 319 320 319 319 318 318 318 318 317 317 316 316 318 318 316 313 313 312 311 310 308 306
322 323 324 323 321 323 323 322 319 318 318 318 317 319 318 316 313 313 315 317 318 319 319 319 319 319 319 319 319 319 319 318 317 316 317 318 317 315 313 312 312 311 310
320 321 320 322 320 322 321 320 319 318 318 318 317 317 315 317 318 316 315 315 314 315 316 317 317 317 316 318 318 318 318 318 318 317 317 316 317 317 315 313 312 312 312
319 318 318 320 319 319 319 319 318 318 317 316 316 317 316 315 317 318 315 315 315 316 315 315 315 314 314 315 317 317 316 315 316 317 317 317 317 317 317 316 314 313 313
318 317 317 318 320 318 317 319 317 317 314 314 317 317 316 316 315 315 318 317 316 318 317 316 315 315 315 315 316 316 315 315 315 317 317 317 317 317 317 317 317 315 315
319 320 317 318 317 317 318 318 320 317 314 314 317 318 317 319 316 317 319 319 315 316 319 319 319 318 317 317 317 316 315 315 315 316 316 315 316 317 317 316 316 315 315
319 319 318 316 315 316 315 314 316 321 321 320 319 319 319 319 321 321 321 321 319 315 314 318 319 319 319 320 319 319 319 318 316 315 315 314 313 315 316 315 315 315 315
319 320 319 317 316 317 318 320 320 318 318 318 321 321 321 321 321 321 322 321 318 318 318 318 318 317 317 318 318 319 319 319 317 316 317 317 315 313 314 314 315 313 312
318 318 319 320 319 317 317 317 319 321 322 322 321 322 322 322 322 321 321 321 320 319 319 319 318 318 318 318 318 319 319 320 319 318 318 316 315 314 314 315 314 312 310
317 317 317 318 319 319 319 319 318 318 321 322 322 321 321 321 321 321 321 320 320 320 319 318 318 318 318 319 319 319 319 319 319 319 318 316 315 313 312 313 312 310 307
317 316 316 315 316 319 320 320 319 319 319 320 321 322 321 321 321 320 320 320 319 319 319 319 319 318 318 319 319 318 318 319 319 318 316 315 314 313 311 311 309 304 302
320 318 318 317 316 315 317 319 320 320 319 319 320 321 321 321 321 320 320 320 320 319 319 319 319 319 319 318 317 316 314 316 316 314 313 314 312 309 307 305 302 300 299
321 320 320 319 318 317 316 316 317 318 319 319 320 320 321 321 321 321 320 320 319 319 319 319 319 320 317 310 312 315 311 312 309 308 307 306 305 304 302 301 301 301 299
321 321 320 320 320 319 319 318 317 317 318 318 319 320 321 321 321 321 321 321 320 319 318 319 319 319 319 313 313 313 309 303 300 300 301 301 301 301 300 299 299 297 293
321 321 321 321 320 320 320 320 320 319 319 319 318 318 319 319 319 319 320 320 320 320 319 318 319 320 319 318 313 308 304 300 295 294 298 292 294 293 292 291 290 289 289
322 321 321 321 321 321 321 322 321 320 318 319 319 319 319 319 319 319 318 318 315 312 311 312 313 311 309 306 304 301 297 294 289 290 292 289 289 290 289 288 288 289 288
319 323 323 322 322 322 322 322 322 322 319 319 319 319 319 319 319 318 318 312 303 298 293 297 297 293 293 295 298 298 292 291 287 285 286 287 285 286 287 288 287 287 285
306 314 325 324 324 324 324 324 324 322 320 319 319 317 317 318 319 319 318 309 291 287 287 287 288 289 290 290 291 292 291 289 285 284 282 284 283 283 283 282 282 282 283

GFSMA_925_thetae_069.txt.gz
Theta_e
327 329 329 327 325 326 324 321 320 320 320 320 319 318 317 316 317 317 318 319 319 319 319 318 318 317 316 315 315 314 314 313 312 311 310 310 309 309 309 309 309 308 308
329 329 328 327 323 324 323 320 318 319 320 320 319 319 318 316 317 317 317 318 318 319 319 318 317 317 316 315 314 314 313 312 312 310 310 309 307 307 306 307 306 306 306
328 328 327 326 321 320 320 320 317 318 320 320 319 319 318 317 316 317 317 318 318 318 318 318 317 317 316 316 314 314 313 312 311 311 309 307 301 301 300 300 297 298 301
327 327 326 324 320 320 319 320 316 317 319 320 319 319 318 317 316 317 317 317 317 317 317 317 317 317 316 316 315 314 313 312 311 311 308 306 300 299 299 298 297 297 297
327 326 324 321 319 319 319 318 314 317 318 320 320 319 318 317 317 317 317 317 316 316 316 317 316 316 316 316 315 316 315 314 312 312 310 309 308 302 299 299 298 298 298
327 325 321 318 317 317 317 315 312 317 317 320 319 319 318 318 317 317 316 316 316 315 315 315 315 315 315 315 316 316 316 316 315 314 313 312 310 304 301 300 300 299 299
327 325 320 316 316 315 313 312 315 317 317 320 319 317 317 317 317 316 316 316 316 315 315 315 314 314 314 314 314 316 317 317 317 316 315 314 312 311 306 304 302 301 300
327 324 322 316 313 311 314 315 316 317 318 320 319 317 315 317 317 317 316 316 316 316 315 315 315 315 315 315 315 315 316 319 319 318 317 315 314 314 312 310 307 305 305
326 324 323 318 315 312 316 317 318 318 318 319 319 318 314 318 314 318 317 317 317 316 316 317 316 316 316 316 316 316 317 316 317 319 318 318 317 315 314 313 311 310 308
325 325 324 320 318 315 317 318 319 319 319 318 318 319 319 318 315 314 315 318 318 318 318 318 318 318 318 318 318 318 318 318 318 317 316 317 318 318 317 315 313 313 311
322 322 322 323 318 319 317 318 318 319 319 319 318 317 318 316 316 314 314 313 316 318 318 319 319 319 319 319 319 318 318 318 318 318 318 317 316 317 318 317 315 314 313
322 321 321 323 322 321 321 319 320 319 318 318 319 319 317 317 317 317 314 314 313 314 317 317 317 317 317 317 316 315 315 315 316 317 317 317 317 317 317 318 318 317 315
321 321 321 320 321 321 321 322 320 319 317 318 319 318 318 316 316 317 318 316 315 317 317 316 316 315 315 315 315 314 314 315 315 316 316 316 316 317 317 317 317 318 317
320 320 319 319 321 321 321 321 321 320 319 318 318 318 318 316 315 316 316 316 313 314 317 318 318 318 317 316 315 315 316 316 316 317 316 316 315 315 316 317 317 316 317
320 318 318 318 320 319 319 318 319 319 318 317 316 316 315 316 316 316 315 316 316 316 314 319 319 318 318 319 319 319 319 319 318 318 318 318 317 315 315 314 313 314 316
319 318 318 317 318 319 320 319 318 317 318 317 316 314 314 315 318 318 319 319 319 319 318 318 317 317 317 317 317 317 318 318 318 318 317 318 318 317 315 315 315 314 314
319 319 319 318 318 318 318 318 317 316 316 318 320 320 319 318 319 319 319 320 320 319 319 319 318 318 318 318 318 318 318 317 317 318 318 318 319 318 316 317 316 314 313
318 318 319 319 319 318 317 318 319 319 319 318 317 317 318 318 319 320 320 320 320 319 319 319 319 318 318 319 318 318 318 318 318 318 318 319 319 318 318 318 316 315 314
318 318 318 317 318 319 319 318 317 317 318 319 320 321 320 320 320 320 320 320 320 320 319 318 319 318 318 317 318 317 317 318 318 318 318 318 318 318 318 317 315 314 313
319 318 318 317 316 316 318 319 319 318 318 317 317 317 318 319 320 319 319 320 319 319 318 318 318 318 317 317 318 316 316 317 317 318 317 317 318 317 315 314 313 310 308
320 319 319 318 317 316 315 315 317 318 318 318 318 318 318 318 319 319 319 319 318 318 318 318 318 318 318 316 315 316 313 316 316 316 314 313 313 311 310 307 306 305 303
320 320 319 319 318 318 318 317 316 315 316 317 318 318 318 318 318 319 319 319 318 318 318 318 319 318 318 318 318 315 316 313 311 311 310 305 303 303 303 302 301 301 300
320 320 320 320 320 320 319 319 319 317 316 316 316 316 317 317 318 318 318 319 320 320 319 319 319 318 318 318 318 316 314 315 312 304 302 296 296 296 294 294 295 294 293
308 312 319 320 320 320 320 320 320 319 317 316 316 317 317 317 317 317 318 318 319 319 320 319 316 315 316 315 315 314 314 304 294 293 293 291 290 289 290 290 289 289 289
301 302 305 308 314 320 321 320 321 319 317 317 318 318 317 317 318 318 317 316 315 311 305 303 302 300 299 299 300 303 299 294 288 285 287 287 285 286 286 286 285 286 285
296 297 298 298 298 302 308 312 316 315 317 317 318 318 317 316 316 318 317 315 303 293 289 286 286 288 289 290 291 292 291 288 285 284 283 284 283 284 283 282 282 282 281